Time,TemperatureF,DewpointF,PressureIn,WindDirection,WindDirectionDegrees,WindSpeedMPH,WindSpeedGustMPH,Humidity,HourlyPrecipIn,Conditions,Clouds,dailyrainin,SoftwareType,DateUTC
2013-06-29 00:00:00,77.9,75.1,29.80,WSW,245,0.0,0.0,91,0.00,,---,0.00,VWS V14.01,2013-06-29 04:00:00,
2013-06-29 00:01:00,77.9,75.1,29.80,WSW,245,0.0,0.0,91,0.00,,---,0.00,VWS V14.01,2013-06-29 04:01:00,
2013-06-29 00:04:00,77.9,75.1,29.79,WSW,245,0.0,0.0,91,0.00,,---,0.00,VWS V14.01,2013-06-29 04:04:00,
2013-06-29 00:05:00,77.9,75.1,29.79,WSW,245,0.0,0.0,91,0.00,,---,0.00,VWS V14.01,2013-06-29 04:05:00,
2013-06-29 00:06:00,77.9,75.1,29.79,WSW,245,0.0,0.0,91,0.00,,---,0.00,VWS V14.01,2013-06-29 04:06:00,
2013-06-29 00:07:00,77.9,75.1,29.79,WSW,245,0.0,0.0,91,0.00,,---,0.00,VWS V14.01,2013-06-29 04:07:00,
2013-06-29 00:11:00,77.7,74.9,29.79,WSW,245,0.0,0.0,91,0.00,,---,0.00,VWS V14.01,2013-06-29 04:11:00,
2013-06-29 00:12:00,77.7,74.9,29.79,WSW,245,0.0,0.0,91,0.00,,---,0.00,VWS V14.01,2013-06-29 04:12:00,
2013-06-29 00:13:00,77.7,74.9,29.79,WSW,245,0.0,0.0,91,0.00,,---,0.00,VWS V14.01,2013-06-29 04:13:00,
2013-06-29 00:15:00,77.9,75.1,29.79,WSW,245,0.0,0.0,91,0.00,,---,0.00,VWS V14.01,2013-06-29 04:15:00,
2013-06-29 00:17:00,77.9,75.1,29.79,WSW,245,0.0,0.0,91,0.00,,---,0.00,VWS V14.01,2013-06-29 04:17:00,
2013-06-29 00:18:00,77.9,75.1,29.80,WSW,245,0.0,0.0,91,0.00,,---,0.00,VWS V14.01,2013-06-29 04:18:00,
2013-06-29 00:19:00,77.9,75.1,29.80,WSW,245,0.0,0.0,91,0.00,,---,0.00,VWS V14.01,2013-06-29 04:19:00,
2013-06-29 00:23:00,77.7,74.9,29.80,WSW,245,0.0,0.0,91,0.00,,---,0.00,VWS V14.01,2013-06-29 04:23:00,
2013-06-29 00:24:00,77.7,74.9,29.80,WSW,245,0.0,0.0,91,0.00,,---,0.00,VWS V14.01,2013-06-29 04:24:00,
2013-06-29 00:26:00,77.7,74.9,29.80,WSW,245,0.0,0.0,91,0.00,,---,0.00,VWS V14.01,2013-06-29 04:26:00,
2013-06-29 00:27:00,77.7,74.9,29.80,WSW,245,0.0,0.0,91,0.00,,---,0.00,VWS V14.01,2013-06-29 04:27:00,
2013-06-29 00:29:00,77.7,75.2,29.80,WSW,245,0.0,0.0,92,0.00,,---,0.00,VWS V14.01,2013-06-29 04:29:00,
2013-06-29 00:30:00,77.7,75.2,29.80,WSW,245,0.0,0.0,92,0.00,,---,0.00,VWS V14.01,2013-06-29 04:30:00,
2013-06-29 00:31:00,77.7,75.2,29.80,WSW,245,0.0,0.0,92,0.00,,---,0.00,VWS V14.01,2013-06-29 04:31:00,
2013-06-29 00:32:00,77.7,75.2,29.80,WSW,245,0.0,0.0,92,0.00,,---,0.00,VWS V14.01,2013-06-29 04:32:00,
2013-06-29 00:35:00,77.7,75.2,29.79,WSW,245,0.0,0.0,92,0.00,,---,0.00,VWS V14.01,2013-06-29 04:35:00,
2013-06-29 00:36:00,77.6,75.1,29.79,WSW,245,0.0,0.0,92,0.00,,---,0.00,VWS V14.01,2013-06-29 04:36:00,
2013-06-29 00:38:00,77.6,75.1,29.79,WSW,245,0.0,0.0,92,0.00,,---,0.00,VWS V14.01,2013-06-29 04:38:00,
2013-06-29 00:39:00,77.6,75.1,29.79,WSW,245,0.0,0.0,92,0.00,,---,0.00,VWS V14.01,2013-06-29 04:39:00,
2013-06-29 00:41:00,77.6,75.1,29.79,WSW,245,0.0,0.0,92,0.00,,---,0.00,VWS V14.01,2013-06-29 04:41:00,
2013-06-29 00:42:00,77.6,75.1,29.79,WSW,245,0.0,0.0,92,0.00,,---,0.00,VWS V14.01,2013-06-29 04:42:00,
2013-06-29 00:43:00,77.4,74.9,29.79,WSW,245,0.0,0.0,92,0.00,,---,0.00,VWS V14.01,2013-06-29 04:43:00,
2013-06-29 00:45:00,77.4,74.9,29.79,WSW,245,0.0,0.0,92,0.00,,---,0.00,VWS V14.01,2013-06-29 04:45:00,
2013-06-29 00:46:00,77.4,74.9,29.79,WSW,245,0.0,0.0,92,0.00,,---,0.00,VWS V14.01,2013-06-29 04:46:00,
2013-06-29 00:47:00,77.4,74.9,29.79,WSW,245,0.0,0.0,92,0.00,,---,0.00,VWS V14.01,2013-06-29 04:47:00,
2013-06-29 00:49:00,77.4,74.9,29.78,WSW,245,0.0,0.0,92,0.00,,---,0.00,VWS V14.01,2013-06-29 04:49:00,
2013-06-29 00:50:00,77.4,74.9,29.78,WSW,245,0.0,0.0,92,0.00,,---,0.00,VWS V14.01,2013-06-29 04:50:00,
2013-06-29 00:51:00,77.4,74.9,29.78,WSW,245,0.0,0.0,92,0.00,,---,0.00,VWS V14.01,2013-06-29 04:51:00,
2013-06-29 00:52:00,77.4,74.9,29.78,WSW,245,0.0,0.0,92,0.00,,---,0.00,VWS V14.01,2013-06-29 04:52:00,
2013-06-29 00:53:00,77.4,74.9,29.78,WSW,245,0.0,0.0,92,0.00,,---,0.00,VWS V14.01,2013-06-29 04:53:00,
2013-06-29 00:56:00,77.2,74.7,29.78,WSW,245,0.0,0.0,92,0.00,,---,0.00,VWS V14.01,2013-06-29 04:56:00,
2013-06-29 00:58:00,77.2,74.7,29.78,WSW,245,0.0,0.0,92,0.00,,---,0.00,VWS V14.01,2013-06-29 04:58:00,
2013-06-29 01:00:00,77.2,74.7,29.78,WSW,245,0.0,0.0,92,0.00,,---,0.00,VWS V14.01,2013-06-29 05:00:00,
2013-06-29 01:02:00,77.2,74.7,29.78,WSW,245,0.0,0.0,92,0.00,,---,0.00,VWS V14.01,2013-06-29 05:02:00,
2013-06-29 01:03:00,77.2,74.7,29.78,WSW,245,0.0,0.0,92,0.00,,---,0.00,VWS V14.01,2013-06-29 05:03:00,
2013-06-29 01:05:00,77.2,74.7,29.78,WSW,245,0.0,0.0,92,0.00,,---,0.00,VWS V14.01,2013-06-29 05:05:00,
2013-06-29 01:06:00,77.2,74.7,29.78,WSW,245,0.0,0.0,92,0.00,,---,0.00,VWS V14.01,2013-06-29 05:06:00,
2013-06-29 01:09:00,77.2,74.7,29.78,WSW,245,0.0,0.0,92,0.00,,---,0.00,VWS V14.01,2013-06-29 05:09:00,
2013-06-29 01:11:00,77.0,74.8,29.78,WSW,245,0.0,0.0,93,0.00,,---,0.00,VWS V14.01,2013-06-29 05:11:00,
2013-06-29 01:12:00,77.0,74.8,29.78,WSW,245,0.0,0.0,93,0.00,,---,0.00,VWS V14.01,2013-06-29 05:12:00,
2013-06-29 01:13:00,77.0,74.8,29.78,WSW,245,0.0,0.0,93,0.00,,---,0.00,VWS V14.01,2013-06-29 05:13:00,
2013-06-29 01:14:00,77.0,74.8,29.78,WSW,245,0.0,0.0,93,0.00,,---,0.00,VWS V14.01,2013-06-29 05:14:00,
2013-06-29 01:15:00,77.0,74.8,29.78,WSW,245,0.0,0.0,93,0.00,,---,0.00,VWS V14.01,2013-06-29 05:15:00,
2013-06-29 01:18:00,77.0,74.8,29.78,WSW,245,0.0,0.0,93,0.00,,---,0.00,VWS V14.01,2013-06-29 05:18:00,
2013-06-29 01:19:00,77.0,74.8,29.78,WSW,245,0.0,0.0,93,0.00,,---,0.00,VWS V14.01,2013-06-29 05:19:00,
2013-06-29 01:23:00,76.8,74.6,29.78,WSW,245,0.0,0.0,93,0.00,,---,0.00,VWS V14.01,2013-06-29 05:23:00,
2013-06-29 01:24:00,76.8,74.6,29.78,WSW,245,0.0,0.0,93,0.00,,---,0.00,VWS V14.01,2013-06-29 05:24:00,
2013-06-29 01:26:00,76.8,74.6,29.78,WSW,245,0.0,0.0,93,0.00,,---,0.00,VWS V14.01,2013-06-29 05:26:00,
2013-06-29 01:29:00,76.8,74.6,29.78,WSW,245,0.0,0.0,93,0.00,,---,0.00,VWS V14.01,2013-06-29 05:29:00,
2013-06-29 01:30:00,76.8,74.6,29.78,WSW,245,0.0,0.0,93,0.00,,---,0.00,VWS V14.01,2013-06-29 05:30:00,
2013-06-29 01:31:00,76.8,74.6,29.78,WSW,245,0.0,0.0,93,0.00,,---,0.00,VWS V14.01,2013-06-29 05:31:00,
2013-06-29 01:32:00,76.8,74.6,29.78,WSW,245,0.0,0.0,93,0.00,,---,0.00,VWS V14.01,2013-06-29 05:32:00,
2013-06-29 01:35:00,76.7,74.5,29.78,WSW,245,0.0,0.0,93,0.00,,---,0.00,VWS V14.01,2013-06-29 05:35:00,
2013-06-29 01:37:00,76.7,74.5,29.78,WSW,245,0.0,0.0,93,0.00,,---,0.00,VWS V14.01,2013-06-29 05:37:00,
2013-06-29 01:38:00,76.7,74.5,29.78,WSW,245,0.0,0.0,93,0.00,,---,0.00,VWS V14.01,2013-06-29 05:38:00,
2013-06-29 01:40:00,76.7,74.5,29.78,WSW,245,0.0,0.0,93,0.00,,---,0.00,VWS V14.01,2013-06-29 05:40:00,
2013-06-29 01:41:00,76.7,74.5,29.78,WSW,245,0.0,0.0,93,0.00,,---,0.00,VWS V14.01,2013-06-29 05:41:00,
2013-06-29 01:44:00,76.7,74.5,29.78,WSW,245,0.0,0.0,93,0.00,,---,0.00,VWS V14.01,2013-06-29 05:44:00,
2013-06-29 01:45:00,76.5,74.3,29.78,WSW,245,0.0,0.0,93,0.00,,---,0.00,VWS V14.01,2013-06-29 05:45:00,
2013-06-29 01:46:00,76.5,74.3,29.78,WSW,245,0.0,0.0,93,0.00,,---,0.00,VWS V14.01,2013-06-29 05:46:00,
2013-06-29 01:47:00,76.5,74.3,29.78,WSW,245,0.0,0.0,93,0.00,,---,0.00,VWS V14.01,2013-06-29 05:47:00,
2013-06-29 01:49:00,76.5,74.7,29.78,WSW,245,0.0,0.0,94,0.00,,---,0.00,VWS V14.01,2013-06-29 05:49:00,
2013-06-29 01:52:00,76.5,74.7,29.78,WSW,245,0.0,0.0,94,0.00,,---,0.00,VWS V14.01,2013-06-29 05:52:00,
2013-06-29 01:54:00,76.5,74.7,29.78,WSW,245,0.0,0.0,94,0.00,,---,0.00,VWS V14.01,2013-06-29 05:54:00,
2013-06-29 01:55:00,76.5,74.7,29.78,WSW,245,0.0,0.0,94,0.00,,---,0.00,VWS V14.01,2013-06-29 05:55:00,
2013-06-29 01:57:00,76.5,74.7,29.78,WSW,245,0.0,0.0,94,0.00,,---,0.00,VWS V14.01,2013-06-29 05:57:00,
2013-06-29 02:01:00,76.5,74.7,29.78,WSW,245,0.0,0.0,94,0.00,,---,0.00,VWS V14.01,2013-06-29 06:01:00,
2013-06-29 02:02:00,76.5,74.7,29.78,WSW,245,0.0,0.0,94,0.00,,---,0.00,VWS V14.01,2013-06-29 06:02:00,
2013-06-29 02:03:00,76.5,74.7,29.78,WSW,245,0.0,0.0,94,0.00,,---,0.00,VWS V14.01,2013-06-29 06:03:00,
2013-06-29 02:06:00,76.3,74.4,29.77,WSW,245,0.0,0.0,94,0.00,,---,0.00,VWS V14.01,2013-06-29 06:06:00,
2013-06-29 02:07:00,76.3,74.4,29.77,WSW,245,0.0,0.0,94,0.00,,---,0.00,VWS V14.01,2013-06-29 06:07:00,
2013-06-29 02:09:00,76.3,74.4,29.77,WSW,245,0.0,0.0,94,0.00,,---,0.00,VWS V14.01,2013-06-29 06:09:00,
2013-06-29 02:11:00,76.3,74.4,29.77,WSW,245,0.0,0.0,94,0.00,,---,0.00,VWS V14.01,2013-06-29 06:11:00,
2013-06-29 02:13:00,76.3,74.4,29.77,WSW,245,0.0,0.0,94,0.00,,---,0.00,VWS V14.01,2013-06-29 06:13:00,
2013-06-29 02:15:00,76.3,74.4,29.77,WSW,245,0.0,0.0,94,0.00,,---,0.00,VWS V14.01,2013-06-29 06:15:00,
2013-06-29 02:16:00,76.3,74.4,29.77,WSW,245,0.0,0.0,94,0.00,,---,0.00,VWS V14.01,2013-06-29 06:16:00,
2013-06-29 02:17:00,76.3,74.4,29.77,WSW,245,0.0,0.0,94,0.00,,---,0.00,VWS V14.01,2013-06-29 06:17:00,
2013-06-29 02:19:00,76.3,74.4,29.76,WSW,245,0.0,0.0,94,0.00,,---,0.00,VWS V14.01,2013-06-29 06:19:00,
2013-06-29 02:21:00,76.3,74.4,29.76,WSW,245,0.0,0.0,94,0.00,,---,0.00,VWS V14.01,2013-06-29 06:21:00,
2013-06-29 02:24:00,76.3,74.8,29.76,WSW,245,0.0,0.0,95,0.00,,---,0.00,VWS V14.01,2013-06-29 06:24:00,
2013-06-29 02:25:00,76.3,74.8,29.76,WSW,245,0.0,0.0,95,0.00,,---,0.00,VWS V14.01,2013-06-29 06:25:00,
2013-06-29 02:26:00,76.3,74.4,29.76,WSW,245,0.0,0.0,94,0.00,,---,0.00,VWS V14.01,2013-06-29 06:26:00,
2013-06-29 02:27:00,76.3,74.8,29.76,WSW,245,0.0,0.0,95,0.00,,---,0.00,VWS V14.01,2013-06-29 06:27:00,
2013-06-29 02:28:00,76.3,74.8,29.76,WSW,245,0.0,0.0,95,0.00,,---,0.00,VWS V14.01,2013-06-29 06:28:00,
2013-06-29 02:30:00,76.5,75.0,29.76,WSW,245,0.0,0.0,95,0.00,,---,0.00,VWS V14.01,2013-06-29 06:30:00,
2013-06-29 02:31:00,76.5,75.0,29.76,WSW,245,0.0,0.0,95,0.00,,---,0.00,VWS V14.01,2013-06-29 06:31:00,
2013-06-29 02:33:00,76.5,75.0,29.75,WSW,245,0.0,0.0,95,0.00,,---,0.00,VWS V14.01,2013-06-29 06:33:00,
2013-06-29 02:34:00,76.5,75.0,29.75,WSW,245,0.0,0.0,95,0.00,,---,0.00,VWS V14.01,2013-06-29 06:34:00,
2013-06-29 02:35:00,76.5,75.0,29.75,WSW,245,0.0,0.0,95,0.00,,---,0.00,VWS V14.01,2013-06-29 06:35:00,
2013-06-29 02:37:00,76.5,75.0,29.75,WSW,245,0.0,0.0,95,0.00,,---,0.00,VWS V14.01,2013-06-29 06:37:00,
2013-06-29 02:39:00,76.5,75.0,29.75,WSW,245,0.0,0.0,95,0.00,,---,0.00,VWS V14.01,2013-06-29 06:39:00,
2013-06-29 02:41:00,76.5,75.0,29.75,WSW,245,0.0,0.0,95,0.00,,---,0.00,VWS V14.01,2013-06-29 06:41:00,
2013-06-29 02:43:00,76.5,75.0,29.75,WSW,245,0.0,0.0,95,0.00,,---,0.00,VWS V14.01,2013-06-29 06:43:00,
2013-06-29 02:44:00,76.5,75.0,29.75,WSW,245,0.0,0.0,95,0.00,,---,0.00,VWS V14.01,2013-06-29 06:44:00,
2013-06-29 02:47:00,76.5,75.0,29.75,WSW,245,0.0,0.0,95,0.00,,---,0.00,VWS V14.01,2013-06-29 06:47:00,
2013-06-29 02:48:00,76.5,75.0,29.75,WSW,245,0.0,0.0,95,0.00,,---,0.00,VWS V14.01,2013-06-29 06:48:00,
2013-06-29 02:49:00,76.5,75.0,29.75,WSW,245,0.0,0.0,95,0.00,,---,0.00,VWS V14.01,2013-06-29 06:49:00,
2013-06-29 02:50:00,76.5,75.0,29.75,WSW,245,0.0,0.0,95,0.00,,---,0.00,VWS V14.01,2013-06-29 06:50:00,
2013-06-29 02:51:00,76.5,75.0,29.75,WSW,245,0.0,0.0,95,0.00,,---,0.00,VWS V14.01,2013-06-29 06:51:00,
2013-06-29 02:52:00,76.5,75.0,29.75,WSW,245,0.0,0.0,95,0.00,,---,0.00,VWS V14.01,2013-06-29 06:52:00,
2013-06-29 02:53:00,76.7,75.2,29.75,WSW,245,0.0,0.0,95,0.00,,---,0.00,VWS V14.01,2013-06-29 06:53:00,
2013-06-29 02:55:00,76.5,75.0,29.75,WSW,245,0.0,0.0,95,0.00,,---,0.00,VWS V14.01,2013-06-29 06:55:00,
2013-06-29 02:56:00,76.5,75.0,29.75,WSW,245,0.0,0.0,95,0.00,,---,0.00,VWS V14.01,2013-06-29 06:56:00,
2013-06-29 02:58:00,76.5,75.0,29.75,WSW,245,0.0,0.0,95,0.00,,---,0.00,VWS V14.01,2013-06-29 06:58:00,
2013-06-29 02:59:00,76.5,75.0,29.75,WSW,245,0.0,0.0,95,0.00,,---,0.00,VWS V14.01,2013-06-29 06:59:00,
2013-06-29 03:00:00,76.5,75.0,29.75,WSW,245,0.0,0.0,95,0.00,,---,0.00,VWS V14.01,2013-06-29 07:00:00,
2013-06-29 03:04:00,76.5,75.0,29.76,WSW,245,0.0,0.0,95,0.00,,---,0.00,VWS V14.01,2013-06-29 07:04:00,
2013-06-29 03:05:00,76.5,75.0,29.76,WSW,245,0.0,0.0,95,0.00,,---,0.00,VWS V14.01,2013-06-29 07:05:00,
2013-06-29 03:06:00,76.5,75.0,29.76,WSW,245,0.0,0.0,95,0.00,,---,0.00,VWS V14.01,2013-06-29 07:06:00,
2013-06-29 03:11:00,76.5,75.0,29.76,WSW,245,0.0,0.0,95,0.00,,---,0.00,VWS V14.01,2013-06-29 07:11:00,
2013-06-29 03:12:00,76.5,75.0,29.76,WSW,245,0.0,0.0,95,0.00,,---,0.00,VWS V14.01,2013-06-29 07:12:00,
2013-06-29 03:13:00,76.5,75.0,29.76,WSW,245,0.0,0.0,95,0.00,,---,0.00,VWS V14.01,2013-06-29 07:13:00,
2013-06-29 03:14:00,76.5,75.0,29.76,WSW,245,0.0,0.0,95,0.00,,---,0.00,VWS V14.01,2013-06-29 07:14:00,
2013-06-29 03:16:00,76.3,74.8,29.76,WSW,245,0.0,0.0,95,0.00,,---,0.00,VWS V14.01,2013-06-29 07:16:00,
2013-06-29 03:18:00,76.3,74.8,29.76,WSW,245,0.0,0.0,95,0.00,,---,0.00,VWS V14.01,2013-06-29 07:18:00,
2013-06-29 03:19:00,76.3,74.8,29.76,WSW,245,0.0,0.0,95,0.00,,---,0.00,VWS V14.01,2013-06-29 07:19:00,
2013-06-29 03:20:00,76.3,74.8,29.76,WSW,245,0.0,0.0,95,0.00,,---,0.00,VWS V14.01,2013-06-29 07:20:00,
2013-06-29 03:21:00,76.3,74.8,29.76,WSW,245,0.0,0.0,95,0.00,,---,0.00,VWS V14.01,2013-06-29 07:21:00,
2013-06-29 03:22:00,76.3,74.8,29.76,WSW,245,0.0,0.0,95,0.00,,---,0.00,VWS V14.01,2013-06-29 07:22:00,
2013-06-29 03:24:00,76.3,74.8,29.76,WSW,245,0.0,0.0,95,0.00,,---,0.00,VWS V14.01,2013-06-29 07:24:00,
2013-06-29 03:26:00,76.1,74.6,29.76,WSW,245,0.0,0.0,95,0.00,,---,0.00,VWS V14.01,2013-06-29 07:26:00,
2013-06-29 03:28:00,76.1,74.6,29.76,WSW,245,0.0,0.0,95,0.00,,---,0.00,VWS V14.01,2013-06-29 07:28:00,
2013-06-29 03:30:00,76.1,74.6,29.76,WSW,245,0.0,0.0,95,0.00,,---,0.00,VWS V14.01,2013-06-29 07:30:00,
2013-06-29 03:32:00,76.1,74.6,29.76,WSW,245,0.0,0.0,95,0.00,,---,0.00,VWS V14.01,2013-06-29 07:32:00,
2013-06-29 03:33:00,76.1,74.6,29.76,WSW,245,0.0,0.0,95,0.00,,---,0.00,VWS V14.01,2013-06-29 07:33:00,
2013-06-29 03:34:00,76.1,74.6,29.76,WSW,245,0.0,0.0,95,0.00,,---,0.00,VWS V14.01,2013-06-29 07:34:00,
2013-06-29 03:36:00,76.1,74.6,29.76,WSW,245,0.0,0.0,95,0.00,,---,0.00,VWS V14.01,2013-06-29 07:36:00,
2013-06-29 03:39:00,76.1,74.6,29.76,WSW,245,0.0,0.0,95,0.00,,---,0.00,VWS V14.01,2013-06-29 07:39:00,
2013-06-29 03:40:00,76.1,74.6,29.76,WSW,245,0.0,0.0,95,0.00,,---,0.00,VWS V14.01,2013-06-29 07:40:00,
2013-06-29 03:41:00,76.1,74.6,29.76,WSW,245,0.0,0.0,95,0.00,,---,0.00,VWS V14.01,2013-06-29 07:41:00,
2013-06-29 03:43:00,76.1,74.6,29.76,WSW,245,0.0,0.0,95,0.00,,---,0.00,VWS V14.01,2013-06-29 07:43:00,
2013-06-29 03:44:00,76.1,74.6,29.76,WSW,245,0.0,0.0,95,0.00,,---,0.00,VWS V14.01,2013-06-29 07:44:00,
2013-06-29 03:46:00,76.1,74.6,29.76,WSW,245,0.0,0.0,95,0.00,,---,0.00,VWS V14.01,2013-06-29 07:46:00,
2013-06-29 03:48:00,76.0,74.5,29.76,WSW,245,0.0,0.0,95,0.00,,---,0.00,VWS V14.01,2013-06-29 07:48:00,
2013-06-29 03:49:00,76.0,74.5,29.76,WSW,245,0.0,0.0,95,0.00,,---,0.00,VWS V14.01,2013-06-29 07:49:00,
2013-06-29 03:53:00,76.0,74.5,29.76,WSW,245,0.0,0.0,95,0.00,,---,0.00,VWS V14.01,2013-06-29 07:53:00,
2013-06-29 03:54:00,76.0,74.5,29.76,WSW,245,0.0,0.0,95,0.00,,---,0.00,VWS V14.01,2013-06-29 07:54:00,
2013-06-29 03:56:00,76.0,74.5,29.76,WSW,245,0.0,0.0,95,0.00,,---,0.00,VWS V14.01,2013-06-29 07:56:00,
2013-06-29 03:57:00,76.0,74.5,29.76,WSW,245,0.0,0.0,95,0.00,,---,0.00,VWS V14.01,2013-06-29 07:57:00,
2013-06-29 03:59:00,76.0,74.5,29.76,WSW,245,0.0,0.0,95,0.00,,---,0.00,VWS V14.01,2013-06-29 07:59:00,
2013-06-29 04:01:00,76.0,74.5,29.76,WSW,245,0.0,0.0,95,0.00,,---,0.00,VWS V14.01,2013-06-29 08:01:00,
2013-06-29 04:03:00,76.0,74.5,29.77,WSW,245,0.0,0.0,95,0.00,,---,0.00,VWS V14.01,2013-06-29 08:03:00,
2013-06-29 04:04:00,76.0,74.5,29.77,WSW,245,0.0,0.0,95,0.00,,---,0.00,VWS V14.01,2013-06-29 08:04:00,
2013-06-29 04:06:00,76.0,74.5,29.77,WSW,245,0.0,0.0,95,0.00,,---,0.00,VWS V14.01,2013-06-29 08:06:00,
2013-06-29 04:07:00,76.0,74.8,29.77,WSW,245,0.0,0.0,96,0.00,,---,0.00,VWS V14.01,2013-06-29 08:07:00,
2013-06-29 04:08:00,76.0,74.8,29.77,WSW,245,0.0,0.0,96,0.00,,---,0.00,VWS V14.01,2013-06-29 08:08:00,
2013-06-29 04:10:00,76.0,74.8,29.77,WSW,245,0.0,0.0,96,0.00,,---,0.00,VWS V14.01,2013-06-29 08:10:00,
2013-06-29 04:11:00,75.8,74.3,29.77,WSW,245,0.0,0.0,95,0.00,,---,0.00,VWS V14.01,2013-06-29 08:11:00,
2013-06-29 04:13:00,75.8,74.3,29.77,WSW,245,0.0,0.0,95,0.00,,---,0.00,VWS V14.01,2013-06-29 08:13:00,
2013-06-29 04:14:00,75.8,74.3,29.77,WSW,245,0.0,0.0,95,0.00,,---,0.00,VWS V14.01,2013-06-29 08:14:00,
2013-06-29 04:16:00,75.8,74.6,29.77,WSW,245,0.0,0.0,96,0.00,,---,0.00,VWS V14.01,2013-06-29 08:16:00,
2013-06-29 04:19:00,75.8,74.6,29.77,WSW,245,0.0,0.0,96,0.00,,---,0.00,VWS V14.01,2013-06-29 08:19:00,
2013-06-29 04:20:00,75.8,74.6,29.77,WSW,245,0.0,0.0,96,0.00,,---,0.00,VWS V14.01,2013-06-29 08:20:00,
2013-06-29 04:21:00,75.8,74.6,29.77,WSW,245,0.0,0.0,96,0.00,,---,0.00,VWS V14.01,2013-06-29 08:21:00,
2013-06-29 04:25:00,75.8,74.6,29.77,WSW,245,0.0,0.0,96,0.00,,---,0.00,VWS V14.01,2013-06-29 08:25:00,
2013-06-29 04:26:00,75.8,74.6,29.77,WSW,245,0.0,0.0,96,0.00,,---,0.00,VWS V14.01,2013-06-29 08:26:00,
2013-06-29 04:27:00,75.8,74.6,29.77,WSW,245,0.0,0.0,96,0.00,,---,0.00,VWS V14.01,2013-06-29 08:27:00,
2013-06-29 04:30:00,75.8,74.6,29.77,WSW,245,0.0,0.0,96,0.00,,---,0.00,VWS V14.01,2013-06-29 08:30:00,
2013-06-29 04:32:00,75.6,74.4,29.77,WSW,245,0.0,0.0,96,0.00,,---,0.00,VWS V14.01,2013-06-29 08:32:00,
2013-06-29 04:33:00,75.6,74.4,29.77,WSW,245,0.0,0.0,96,0.00,,---,0.00,VWS V14.01,2013-06-29 08:33:00,
2013-06-29 04:36:00,75.6,74.4,29.76,WSW,245,0.0,0.0,96,0.00,,---,0.00,VWS V14.01,2013-06-29 08:36:00,
2013-06-29 04:37:00,75.8,74.6,29.76,WSW,245,0.0,0.0,96,0.00,,---,0.00,VWS V14.01,2013-06-29 08:37:00,
2013-06-29 04:40:00,75.8,74.6,29.76,WSW,245,0.0,0.0,96,0.00,,---,0.00,VWS V14.01,2013-06-29 08:40:00,
2013-06-29 04:41:00,75.8,74.6,29.76,WSW,245,0.0,0.0,96,0.00,,---,0.00,VWS V14.01,2013-06-29 08:41:00,
2013-06-29 04:43:00,75.8,74.6,29.76,WSW,245,0.0,0.0,96,0.00,,---,0.00,VWS V14.01,2013-06-29 08:43:00,
2013-06-29 04:45:00,75.8,74.6,29.76,WSW,245,0.0,0.0,96,0.00,,---,0.00,VWS V14.01,2013-06-29 08:45:00,
2013-06-29 04:47:00,75.8,74.6,29.76,WSW,245,0.0,0.0,96,0.00,,---,0.00,VWS V14.01,2013-06-29 08:47:00,
2013-06-29 04:48:00,75.8,74.6,29.76,WSW,245,0.0,0.0,96,0.00,,---,0.00,VWS V14.01,2013-06-29 08:48:00,
2013-06-29 04:49:00,75.8,74.6,29.76,WSW,245,0.0,0.0,96,0.00,,---,0.00,VWS V14.01,2013-06-29 08:49:00,
2013-06-29 04:50:00,75.8,74.6,29.76,WSW,245,0.0,0.0,96,0.00,,---,0.00,VWS V14.01,2013-06-29 08:50:00,
2013-06-29 04:53:00,75.8,74.6,29.76,WSW,245,0.0,0.0,96,0.00,,---,0.00,VWS V14.01,2013-06-29 08:53:00,
2013-06-29 04:54:00,75.8,74.6,29.76,WSW,245,0.0,0.0,96,0.00,,---,0.00,VWS V14.01,2013-06-29 08:54:00,
2013-06-29 04:56:00,75.8,74.6,29.76,WSW,245,0.0,0.0,96,0.00,,---,0.00,VWS V14.01,2013-06-29 08:56:00,
2013-06-29 04:57:00,75.8,74.6,29.76,WSW,245,0.0,0.0,96,0.00,,---,0.00,VWS V14.01,2013-06-29 08:57:00,
2013-06-29 04:59:00,75.6,74.4,29.76,WSW,245,0.0,0.0,96,0.00,,---,0.00,VWS V14.01,2013-06-29 08:59:00,
2013-06-29 05:02:00,75.6,74.4,29.76,WSW,245,0.0,0.0,96,0.00,,---,0.00,VWS V14.01,2013-06-29 09:02:00,
2013-06-29 05:04:00,75.6,74.4,29.76,WSW,245,0.0,0.0,96,0.00,,---,0.00,VWS V14.01,2013-06-29 09:04:00,
2013-06-29 05:05:00,75.6,74.4,29.76,WSW,245,0.0,0.0,96,0.00,,---,0.00,VWS V14.01,2013-06-29 09:05:00,
2013-06-29 05:06:00,75.6,74.4,29.76,WSW,245,0.0,0.0,96,0.00,,---,0.00,VWS V14.01,2013-06-29 09:06:00,
2013-06-29 05:07:00,75.6,74.4,29.76,WSW,245,0.0,0.0,96,0.00,,---,0.00,VWS V14.01,2013-06-29 09:07:00,
2013-06-29 05:10:00,75.6,74.4,29.76,WSW,245,0.0,0.0,96,0.00,,---,0.00,VWS V14.01,2013-06-29 09:10:00,
2013-06-29 05:11:00,75.6,74.4,29.76,WSW,245,0.0,0.0,96,0.00,,---,0.00,VWS V14.01,2013-06-29 09:11:00,
2013-06-29 05:12:00,75.6,74.4,29.76,WSW,245,0.0,0.0,96,0.00,,---,0.00,VWS V14.01,2013-06-29 09:12:00,
2013-06-29 05:13:00,75.6,74.4,29.76,WSW,245,0.0,0.0,96,0.00,,---,0.00,VWS V14.01,2013-06-29 09:13:00,
2013-06-29 05:15:00,75.6,74.4,29.76,WSW,245,0.0,0.0,96,0.00,,---,0.00,VWS V14.01,2013-06-29 09:15:00,
2013-06-29 05:17:00,75.6,74.4,29.76,WSW,245,0.0,0.0,96,0.00,,---,0.00,VWS V14.01,2013-06-29 09:17:00,
2013-06-29 05:18:00,75.6,74.4,29.76,WSW,245,0.0,0.0,96,0.00,,---,0.00,VWS V14.01,2013-06-29 09:18:00,
2013-06-29 05:20:00,75.6,74.4,29.76,WSW,245,0.0,0.0,96,0.00,,---,0.00,VWS V14.01,2013-06-29 09:20:00,
2013-06-29 05:22:00,75.6,74.4,29.76,WSW,245,0.0,0.0,96,0.00,,---,0.00,VWS V14.01,2013-06-29 09:22:00,
2013-06-29 05:23:00,75.6,74.4,29.76,WSW,245,0.0,0.0,96,0.00,,---,0.00,VWS V14.01,2013-06-29 09:23:00,
2013-06-29 05:25:00,75.8,74.6,29.76,WSW,245,0.0,0.0,96,0.00,,---,0.00,VWS V14.01,2013-06-29 09:25:00,
2013-06-29 05:26:00,75.8,74.6,29.76,WSW,245,0.0,0.0,96,0.00,,---,0.00,VWS V14.01,2013-06-29 09:26:00,
2013-06-29 05:27:00,75.8,74.6,29.76,WSW,245,0.0,0.0,96,0.00,,---,0.00,VWS V14.01,2013-06-29 09:27:00,
2013-06-29 05:29:00,75.8,74.6,29.76,WSW,245,0.0,0.0,96,0.00,,---,0.00,VWS V14.01,2013-06-29 09:29:00,
2013-06-29 05:31:00,75.8,74.6,29.76,WSW,245,0.0,0.0,96,0.00,,---,0.00,VWS V14.01,2013-06-29 09:31:00,
2013-06-29 05:32:00,75.8,74.6,29.76,WSW,245,0.0,0.0,96,0.00,,---,0.00,VWS V14.01,2013-06-29 09:32:00,
2013-06-29 05:33:00,75.8,74.6,29.77,WSW,245,0.0,0.0,96,0.00,,---,0.00,VWS V14.01,2013-06-29 09:33:00,
2013-06-29 05:35:00,75.8,74.6,29.77,WSW,245,0.0,0.0,96,0.00,,---,0.00,VWS V14.01,2013-06-29 09:35:00,
2013-06-29 05:37:00,75.8,74.6,29.77,WSW,245,0.0,0.0,96,0.00,,---,0.00,VWS V14.01,2013-06-29 09:37:00,
2013-06-29 05:38:00,75.8,74.6,29.77,WSW,245,0.0,0.0,96,0.00,,---,0.00,VWS V14.01,2013-06-29 09:38:00,
2013-06-29 05:40:00,75.6,74.4,29.77,WSW,245,0.0,0.0,96,0.00,,---,0.00,VWS V14.01,2013-06-29 09:40:00,
2013-06-29 05:41:00,75.6,74.4,29.77,WSW,245,0.0,0.0,96,0.00,,---,0.00,VWS V14.01,2013-06-29 09:41:00,
2013-06-29 05:42:00,75.6,74.4,29.77,WSW,245,0.0,0.0,96,0.00,,---,0.00,VWS V14.01,2013-06-29 09:42:00,
2013-06-29 05:44:00,75.6,74.4,29.77,WSW,245,0.0,0.0,96,0.00,,---,0.00,VWS V14.01,2013-06-29 09:44:00,
2013-06-29 05:46:00,75.6,74.4,29.77,WSW,245,0.0,0.0,96,0.00,,---,0.00,VWS V14.01,2013-06-29 09:46:00,
2013-06-29 05:48:00,75.6,74.4,29.77,WSW,245,0.0,0.0,96,0.00,,---,0.00,VWS V14.01,2013-06-29 09:48:00,
2013-06-29 05:49:00,75.6,74.4,29.77,WSW,245,0.0,0.0,96,0.00,,---,0.00,VWS V14.01,2013-06-29 09:49:00,
2013-06-29 05:51:00,75.6,74.4,29.77,WSW,245,0.0,0.0,96,0.00,,---,0.00,VWS V14.01,2013-06-29 09:51:00,
2013-06-29 05:52:00,75.6,74.4,29.77,WSW,245,0.0,0.0,96,0.00,,---,0.00,VWS V14.01,2013-06-29 09:52:00,
2013-06-29 05:56:00,75.6,74.4,29.77,WSW,245,0.0,0.0,96,0.00,,---,0.00,VWS V14.01,2013-06-29 09:56:00,
2013-06-29 05:57:00,75.6,74.7,29.77,WSW,245,0.0,0.0,97,0.00,,---,0.00,VWS V14.01,2013-06-29 09:57:00,
2013-06-29 05:58:00,75.6,74.7,29.77,WSW,245,0.0,0.0,97,0.00,,---,0.00,VWS V14.01,2013-06-29 09:58:00,
2013-06-29 05:59:00,75.6,74.7,29.77,WSW,245,0.0,0.0,97,0.00,,---,0.00,VWS V14.01,2013-06-29 09:59:00,
2013-06-29 06:03:00,75.8,74.9,29.77,WSW,245,0.0,0.0,97,0.00,,---,0.00,VWS V14.01,2013-06-29 10:03:00,
2013-06-29 06:04:00,75.8,74.9,29.77,WSW,245,0.0,0.0,97,0.00,,---,0.00,VWS V14.01,2013-06-29 10:04:00,
2013-06-29 06:05:00,75.8,74.9,29.77,WSW,245,0.0,0.0,97,0.00,,---,0.00,VWS V14.01,2013-06-29 10:05:00,
2013-06-29 06:10:00,76.0,74.8,29.77,WSW,245,0.0,0.0,96,0.00,,---,0.00,VWS V14.01,2013-06-29 10:10:00,
2013-06-29 06:11:00,76.0,74.8,29.77,WSW,245,0.0,0.0,96,0.00,,---,0.00,VWS V14.01,2013-06-29 10:11:00,
2013-06-29 06:12:00,76.0,74.8,29.77,WSW,245,0.0,0.0,96,0.00,,---,0.00,VWS V14.01,2013-06-29 10:12:00,
2013-06-29 06:15:00,76.1,74.9,29.77,WSW,245,0.0,0.0,96,0.00,,---,0.00,VWS V14.01,2013-06-29 10:15:00,
2013-06-29 06:16:00,76.1,74.9,29.77,WSW,245,0.0,0.0,96,0.00,,---,0.00,VWS V14.01,2013-06-29 10:16:00,
2013-06-29 06:18:00,76.1,74.9,29.77,WSW,245,0.0,0.0,96,0.00,,---,0.00,VWS V14.01,2013-06-29 10:18:00,
2013-06-29 06:20:00,76.3,75.1,29.77,WSW,245,0.0,0.0,96,0.00,,---,0.00,VWS V14.01,2013-06-29 10:20:00,
2013-06-29 06:22:00,76.3,75.1,29.77,WSW,245,0.0,0.0,96,0.00,,---,0.00,VWS V14.01,2013-06-29 10:22:00,
2013-06-29 06:23:00,76.3,75.1,29.77,WSW,245,0.0,0.0,96,0.00,,---,0.00,VWS V14.01,2013-06-29 10:23:00,
2013-06-29 06:24:00,76.3,75.1,29.77,WSW,245,0.0,0.0,96,0.00,,---,0.00,VWS V14.01,2013-06-29 10:24:00,
2013-06-29 06:26:00,76.3,75.1,29.77,WSW,245,0.0,0.0,96,0.00,,---,0.00,VWS V14.01,2013-06-29 10:26:00,
2013-06-29 06:28:00,76.3,74.8,29.77,WSW,245,0.0,0.0,95,0.00,,---,0.00,VWS V14.01,2013-06-29 10:28:00,
2013-06-29 06:29:00,76.3,74.8,29.77,WSW,245,0.0,0.0,95,0.00,,---,0.00,VWS V14.01,2013-06-29 10:29:00,
2013-06-29 06:31:00,76.5,75.0,29.77,WSW,245,0.0,0.0,95,0.00,,---,0.00,VWS V14.01,2013-06-29 10:31:00,
2013-06-29 06:32:00,76.5,75.0,29.77,WSW,245,0.0,0.0,95,0.00,,---,0.00,VWS V14.01,2013-06-29 10:32:00,
2013-06-29 06:35:00,76.5,75.0,29.77,WSW,245,0.0,0.0,95,0.00,,---,0.00,VWS V14.01,2013-06-29 10:35:00,
2013-06-29 06:36:00,76.5,75.0,29.77,WSW,245,0.0,0.0,95,0.00,,---,0.00,VWS V14.01,2013-06-29 10:36:00,
2013-06-29 06:37:00,76.7,75.2,29.77,WSW,245,0.0,0.0,95,0.00,,---,0.00,VWS V14.01,2013-06-29 10:37:00,
2013-06-29 06:38:00,76.7,75.2,29.77,WSW,245,0.0,0.0,95,0.00,,---,0.00,VWS V14.01,2013-06-29 10:38:00,
2013-06-29 06:39:00,76.7,75.2,29.77,WSW,245,0.0,0.0,95,0.00,,---,0.00,VWS V14.01,2013-06-29 10:39:00,
2013-06-29 06:40:00,76.7,74.8,29.77,WSW,245,0.0,0.0,94,0.00,,---,0.00,VWS V14.01,2013-06-29 10:40:00,
2013-06-29 06:42:00,76.7,74.8,29.77,WSW,245,0.0,0.0,94,0.00,,---,0.00,VWS V14.01,2013-06-29 10:42:00,
2013-06-29 06:43:00,76.8,74.9,29.77,WSW,245,0.0,0.0,94,0.00,,---,0.00,VWS V14.01,2013-06-29 10:43:00,
2013-06-29 06:45:00,76.8,74.9,29.77,WSW,245,0.0,0.0,94,0.00,,---,0.00,VWS V14.01,2013-06-29 10:45:00,
2013-06-29 06:47:00,76.8,74.6,29.77,WSW,245,0.0,0.0,93,0.00,,---,0.00,VWS V14.01,2013-06-29 10:47:00,
2013-06-29 06:49:00,77.0,74.8,29.77,WSW,245,0.0,0.0,93,0.00,,---,0.00,VWS V14.01,2013-06-29 10:49:00,
2013-06-29 06:50:00,77.0,74.8,29.77,WSW,245,0.0,0.0,93,0.00,,---,0.00,VWS V14.01,2013-06-29 10:50:00,
2013-06-29 06:51:00,77.0,74.8,29.77,WSW,245,0.0,0.0,93,0.00,,---,0.00,VWS V14.01,2013-06-29 10:51:00,
2013-06-29 06:53:00,77.0,74.5,29.77,WSW,245,0.0,0.0,92,0.00,,---,0.00,VWS V14.01,2013-06-29 10:53:00,
2013-06-29 06:55:00,77.2,74.7,29.77,WSW,245,0.0,0.0,92,0.00,,---,0.00,VWS V14.01,2013-06-29 10:55:00,
2013-06-29 06:56:00,77.2,74.7,29.77,WSW,245,0.0,0.0,92,0.00,,---,0.00,VWS V14.01,2013-06-29 10:56:00,
2013-06-29 06:59:00,77.2,74.7,29.77,WSW,245,0.0,0.0,92,0.00,,---,0.00,VWS V14.01,2013-06-29 10:59:00,
2013-06-29 07:00:00,77.2,74.4,29.77,WSW,245,0.0,0.0,91,0.00,,---,0.00,VWS V14.01,2013-06-29 11:00:00,
2013-06-29 07:01:00,77.4,74.6,29.77,WSW,245,0.0,0.0,91,0.00,,---,0.00,VWS V14.01,2013-06-29 11:01:00,
2013-06-29 07:02:00,77.4,74.6,29.77,WSW,245,0.0,0.0,91,0.00,,---,0.00,VWS V14.01,2013-06-29 11:02:00,
2013-06-29 07:05:00,77.4,74.6,29.76,WSW,245,0.0,0.0,91,0.00,,---,0.00,VWS V14.01,2013-06-29 11:05:00,
2013-06-29 07:07:00,77.6,74.8,29.76,WSW,245,0.0,0.0,91,0.00,,---,0.00,VWS V14.01,2013-06-29 11:07:00,
2013-06-29 07:08:00,77.6,74.8,29.76,WSW,245,0.0,0.0,91,0.00,,---,0.00,VWS V14.01,2013-06-29 11:08:00,
2013-06-29 07:10:00,77.7,74.5,29.76,WSW,245,0.0,0.0,90,0.00,,---,0.00,VWS V14.01,2013-06-29 11:10:00,
2013-06-29 07:13:00,77.9,74.4,29.76,WSW,245,0.0,0.0,89,0.00,,---,0.00,VWS V14.01,2013-06-29 11:13:00,
2013-06-29 07:14:00,77.9,74.4,29.76,WSW,245,0.0,0.0,89,0.00,,---,0.00,VWS V14.01,2013-06-29 11:14:00,
2013-06-29 07:15:00,78.1,74.6,29.76,WSW,245,0.0,0.0,89,0.00,,---,0.00,VWS V14.01,2013-06-29 11:15:00,
2013-06-29 07:16:00,78.3,74.8,29.76,WSW,245,0.0,0.0,89,0.00,,---,0.00,VWS V14.01,2013-06-29 11:16:00,
2013-06-29 07:17:00,78.3,74.8,29.76,WSW,245,0.0,0.0,89,0.00,,---,0.00,VWS V14.01,2013-06-29 11:17:00,
2013-06-29 07:20:00,78.6,74.8,29.76,WSW,245,0.0,0.0,88,0.00,,---,0.00,VWS V14.01,2013-06-29 11:20:00,
2013-06-29 07:21:00,78.6,74.8,29.76,WSW,245,0.0,0.0,88,0.00,,---,0.00,VWS V14.01,2013-06-29 11:21:00,
2013-06-29 07:22:00,78.6,74.4,29.76,WSW,245,0.0,0.0,87,0.00,,---,0.00,VWS V14.01,2013-06-29 11:22:00,
2013-06-29 07:25:00,78.8,74.6,29.76,WSW,245,0.0,0.0,87,0.00,,---,0.00,VWS V14.01,2013-06-29 11:25:00,
2013-06-29 07:26:00,79.0,74.5,29.76,WSW,245,0.0,0.0,86,0.00,,---,0.00,VWS V14.01,2013-06-29 11:26:00,
2013-06-29 07:27:00,79.0,74.5,29.76,WSW,245,0.0,0.0,86,0.00,,---,0.00,VWS V14.01,2013-06-29 11:27:00,
2013-06-29 07:32:00,79.6,74.7,29.76,WSW,245,0.0,0.0,85,0.00,,---,0.00,VWS V14.01,2013-06-29 11:32:00,
2013-06-29 07:33:00,79.6,74.7,29.76,WSW,245,0.0,0.0,85,0.00,,---,0.00,VWS V14.01,2013-06-29 11:33:00,
2013-06-29 07:34:00,79.6,74.3,29.77,WSW,245,0.0,0.0,84,0.00,,---,0.00,VWS V14.01,2013-06-29 11:34:00,
2013-06-29 07:35:00,79.8,74.5,29.77,WSW,245,0.0,0.0,84,0.00,,---,0.00,VWS V14.01,2013-06-29 11:35:00,
2013-06-29 07:38:00,80.1,74.8,29.77,WSW,245,0.0,0.0,84,0.00,,---,0.00,VWS V14.01,2013-06-29 11:38:00,
2013-06-29 07:41:00,80.3,74.7,29.77,WSW,245,0.0,0.0,83,0.00,,---,0.00,VWS V14.01,2013-06-29 11:41:00,
2013-06-29 07:42:00,80.5,74.9,29.77,WSW,245,0.0,0.0,83,0.00,,---,0.00,VWS V14.01,2013-06-29 11:42:00,
2013-06-29 07:45:00,80.7,74.7,29.77,WSW,245,0.0,0.0,82,0.00,,---,0.00,VWS V14.01,2013-06-29 11:45:00,
2013-06-29 07:47:00,81.1,75.1,29.77,WSW,245,0.0,0.0,82,0.00,,---,0.00,VWS V14.01,2013-06-29 11:47:00,
2013-06-29 07:48:00,81.1,75.1,29.77,WSW,245,0.0,0.0,82,0.00,,---,0.00,VWS V14.01,2013-06-29 11:48:00,
2013-06-29 07:50:00,81.2,74.8,29.77,WSW,245,0.0,0.0,81,0.00,,---,0.00,VWS V14.01,2013-06-29 11:50:00,
2013-06-29 07:52:00,81.6,74.8,29.77,WSW,245,0.0,0.0,80,0.00,,---,0.00,VWS V14.01,2013-06-29 11:52:00,
2013-06-29 07:53:00,81.6,74.8,29.77,WSW,245,0.0,0.0,80,0.00,,---,0.00,VWS V14.01,2013-06-29 11:53:00,
2013-06-29 07:54:00,81.6,74.8,29.77,WSW,245,0.0,0.0,80,0.00,,---,0.00,VWS V14.01,2013-06-29 11:54:00,
2013-06-29 07:58:00,82.0,74.8,29.77,WSW,245,0.0,0.0,79,0.00,,---,0.00,VWS V14.01,2013-06-29 11:58:00,
2013-06-29 07:59:00,82.2,75.0,29.77,WSW,245,0.0,0.0,79,0.00,,---,0.00,VWS V14.01,2013-06-29 11:59:00,
2013-06-29 08:04:00,82.6,74.7,29.77,WSW,245,0.0,0.0,77,0.00,,---,0.00,VWS V14.01,2013-06-29 12:04:00,
2013-06-29 08:05:00,82.8,74.9,29.77,WSW,245,0.0,0.0,77,0.00,,---,0.00,VWS V14.01,2013-06-29 12:05:00,
2013-06-29 08:09:00,83.4,75.1,29.77,WSW,245,0.0,0.0,76,0.00,,---,0.00,VWS V14.01,2013-06-29 12:09:00,
2013-06-29 08:10:00,83.4,75.1,29.77,WSW,245,0.0,0.0,76,0.00,,---,0.00,VWS V14.01,2013-06-29 12:10:00,
2013-06-29 08:11:00,83.4,75.1,29.77,WSW,245,0.0,0.0,76,0.00,,---,0.00,VWS V14.01,2013-06-29 12:11:00,
2013-06-29 08:12:00,83.6,74.8,29.77,WSW,245,0.0,0.0,75,0.00,,---,0.00,VWS V14.01,2013-06-29 12:12:00,
2013-06-29 08:14:00,83.8,75.0,29.77,WSW,245,0.0,0.0,75,0.00,,---,0.00,VWS V14.01,2013-06-29 12:14:00,
2013-06-29 08:15:00,83.8,74.2,29.77,WSW,245,0.0,0.0,73,0.00,,---,0.00,VWS V14.01,2013-06-29 12:15:00,
2013-06-29 08:16:00,83.8,74.2,29.77,WSW,245,0.0,0.0,73,0.00,,---,0.00,VWS V14.01,2013-06-29 12:16:00,
2013-06-29 08:17:00,83.8,74.2,29.77,WSW,245,0.0,0.0,73,0.00,,---,0.00,VWS V14.01,2013-06-29 12:17:00,
2013-06-29 08:20:00,84.0,74.4,29.77,WSW,237,1.0,1.0,73,0.00,,---,0.00,VWS V14.01,2013-06-29 12:20:00,
2013-06-29 08:22:00,84.1,74.5,29.77,WSW,237,0.0,1.0,73,0.00,,---,0.00,VWS V14.01,2013-06-29 12:22:00,
2013-06-29 08:23:00,84.1,74.5,29.77,WSW,237,0.0,1.0,73,0.00,,---,0.00,VWS V14.01,2013-06-29 12:23:00,
2013-06-29 08:25:00,84.3,74.7,29.77,WSW,237,0.0,1.0,73,0.00,,---,0.00,VWS V14.01,2013-06-29 12:25:00,
2013-06-29 08:27:00,84.3,74.7,29.77,WSW,237,0.0,1.0,73,0.00,,---,0.00,VWS V14.01,2013-06-29 12:27:00,
2013-06-29 08:28:00,84.3,74.7,29.77,WSW,237,0.0,1.0,73,0.00,,---,0.00,VWS V14.01,2013-06-29 12:28:00,
2013-06-29 08:29:00,84.5,74.9,29.77,WSW,237,0.0,1.0,73,0.00,,---,0.00,VWS V14.01,2013-06-29 12:29:00,
2013-06-29 08:30:00,84.5,74.9,29.77,WSW,237,0.0,1.0,73,0.00,,---,0.00,VWS V14.01,2013-06-29 12:30:00,
2013-06-29 08:32:00,84.7,75.1,29.77,WSW,237,0.0,1.0,73,0.00,,---,0.00,VWS V14.01,2013-06-29 12:32:00,
2013-06-29 08:33:00,84.7,75.1,29.78,WSW,237,0.0,1.0,73,0.00,,---,0.00,VWS V14.01,2013-06-29 12:33:00,
2013-06-29 08:34:00,84.9,75.3,29.78,WSW,237,0.0,1.0,73,0.00,,---,0.00,VWS V14.01,2013-06-29 12:34:00,
2013-06-29 08:38:00,85.1,75.5,29.78,SW,224,0.0,1.0,73,0.00,,---,0.00,VWS V14.01,2013-06-29 12:38:00,
2013-06-29 08:40:00,84.9,74.4,29.78,SW,224,0.0,1.0,71,0.00,,---,0.00,VWS V14.01,2013-06-29 12:40:00,
2013-06-29 08:41:00,84.9,74.9,29.78,SW,224,0.0,1.0,72,0.00,,---,0.00,VWS V14.01,2013-06-29 12:41:00,
2013-06-29 08:44:00,85.1,75.1,29.78,SW,226,0.0,1.0,72,0.00,,---,0.00,VWS V14.01,2013-06-29 12:44:00,
2013-06-29 08:46:00,85.1,75.1,29.78,WSW,242,0.0,2.0,72,0.00,,---,0.00,VWS V14.01,2013-06-29 12:46:00,
2013-06-29 08:47:00,85.1,75.1,29.78,WSW,242,0.0,2.0,72,0.00,,---,0.00,VWS V14.01,2013-06-29 12:47:00,
2013-06-29 08:49:00,85.3,75.2,29.78,SW,227,0.0,5.0,72,0.00,,---,0.00,VWS V14.01,2013-06-29 12:49:00,
2013-06-29 08:50:00,85.3,75.2,29.78,SW,227,0.0,5.0,72,0.00,,---,0.00,VWS V14.01,2013-06-29 12:50:00,
2013-06-29 08:52:00,85.3,75.2,29.78,South,189,0.0,5.0,72,0.00,,---,0.00,VWS V14.01,2013-06-29 12:52:00,
2013-06-29 08:54:00,85.3,75.7,29.78,South,189,0.0,5.0,73,0.00,,---,0.00,VWS V14.01,2013-06-29 12:54:00,
2013-06-29 08:55:00,85.3,75.2,29.78,South,189,0.0,5.0,72,0.00,,---,0.00,VWS V14.01,2013-06-29 12:55:00,
2013-06-29 08:56:00,85.3,75.2,29.78,South,189,0.0,5.0,72,0.00,,---,0.00,VWS V14.01,2013-06-29 12:56:00,
2013-06-29 08:58:00,85.3,75.2,29.78,SW,236,0.0,7.0,72,0.00,,---,0.00,VWS V14.01,2013-06-29 12:58:00,
2013-06-29 08:59:00,85.5,75.0,29.78,WSW,237,0.0,7.0,71,0.00,,---,0.00,VWS V14.01,2013-06-29 12:59:00,
2013-06-29 09:00:00,85.5,75.0,29.78,WSW,237,0.0,7.0,71,0.00,,---,0.00,VWS V14.01,2013-06-29 13:00:00,
2013-06-29 09:01:00,85.5,75.0,29.78,WSW,237,0.0,7.0,71,0.00,,---,0.00,VWS V14.01,2013-06-29 13:01:00,
2013-06-29 09:02:00,85.5,75.0,29.78,WSW,237,0.0,7.0,71,0.00,,---,0.00,VWS V14.01,2013-06-29 13:02:00,
2013-06-29 09:05:00,85.7,74.8,29.78,SW,236,0.0,0.0,70,0.00,,---,0.00,VWS V14.01,2013-06-29 13:05:00,
2013-06-29 09:07:00,85.7,73.9,29.78,SW,233,0.0,0.0,68,0.00,,---,0.00,VWS V14.01,2013-06-29 13:07:00,
2013-06-29 09:09:00,85.5,73.3,29.78,WSW,252,0.0,7.0,67,0.00,,---,0.00,VWS V14.01,2013-06-29 13:09:00,
2013-06-29 09:10:00,85.5,73.7,29.78,WSW,252,0.0,7.0,68,0.00,,---,0.00,VWS V14.01,2013-06-29 13:10:00,
2013-06-29 09:11:00,85.5,73.7,29.78,WSW,252,0.0,7.0,68,0.00,,---,0.00,VWS V14.01,2013-06-29 13:11:00,
2013-06-29 09:13:00,85.5,73.7,29.78,WSW,247,0.0,7.0,68,0.00,,---,0.00,VWS V14.01,2013-06-29 13:13:00,
2013-06-29 09:15:00,85.5,74.2,29.78,WSW,247,1.0,7.0,69,0.00,,---,0.00,VWS V14.01,2013-06-29 13:15:00,
2013-06-29 09:16:00,85.7,73.9,29.78,WSW,247,0.0,7.0,68,0.00,,---,0.00,VWS V14.01,2013-06-29 13:16:00,
2013-06-29 09:19:00,85.5,73.7,29.78,WSW,247,0.0,7.0,68,0.00,,---,0.00,VWS V14.01,2013-06-29 13:19:00,
2013-06-29 09:20:00,85.5,73.7,29.78,WSW,247,0.0,7.0,68,0.00,,---,0.00,VWS V14.01,2013-06-29 13:20:00,
2013-06-29 09:22:00,85.5,73.7,29.78,WSW,247,0.0,7.0,68,0.00,,---,0.00,VWS V14.01,2013-06-29 13:22:00,
2013-06-29 09:26:00,85.9,74.6,29.78,WSW,247,0.0,7.0,69,0.00,,---,0.00,VWS V14.01,2013-06-29 13:26:00,
2013-06-29 09:28:00,85.9,74.6,29.78,WSW,247,0.0,7.0,69,0.00,,---,0.00,VWS V14.01,2013-06-29 13:28:00,
2013-06-29 09:31:00,86.5,74.2,29.78,WSW,241,0.0,7.0,67,0.00,,---,0.00,VWS V14.01,2013-06-29 13:31:00,
2013-06-29 09:33:00,86.7,74.4,29.78,WSW,239,0.0,7.0,67,0.00,,---,0.00,VWS V14.01,2013-06-29 13:33:00,
2013-06-29 09:34:00,86.7,74.4,29.78,WSW,239,0.0,7.0,67,0.00,,---,0.00,VWS V14.01,2013-06-29 13:34:00,
2013-06-29 09:36:00,87.0,74.7,29.78,SW,225,0.0,7.0,67,0.00,,---,0.00,VWS V14.01,2013-06-29 13:36:00,
2013-06-29 09:39:00,87.0,74.7,29.78,SW,228,0.0,7.0,67,0.00,,---,0.00,VWS V14.01,2013-06-29 13:39:00,
2013-06-29 09:40:00,87.2,74.9,29.78,SW,228,0.0,7.0,67,0.00,,---,0.00,VWS V14.01,2013-06-29 13:40:00,
2013-06-29 09:41:00,87.4,74.7,29.78,SW,228,0.0,7.0,66,0.00,,---,0.00,VWS V14.01,2013-06-29 13:41:00,
2013-06-29 09:43:00,87.4,74.7,29.78,SW,228,0.0,7.0,66,0.00,,---,0.00,VWS V14.01,2013-06-29 13:43:00,
2013-06-29 09:46:00,87.2,74.9,29.78,SSW,202,0.0,7.0,67,0.00,,---,0.00,VWS V14.01,2013-06-29 13:46:00,
2013-06-29 09:47:00,87.2,74.9,29.78,SSW,202,0.0,7.0,67,0.00,,---,0.00,VWS V14.01,2013-06-29 13:47:00,
2013-06-29 09:48:00,87.4,75.1,29.78,SSW,202,0.0,7.0,67,0.00,,---,0.00,VWS V14.01,2013-06-29 13:48:00,
2013-06-29 09:50:00,87.4,74.7,29.78,SSW,200,0.0,7.0,66,0.00,,---,0.00,VWS V14.01,2013-06-29 13:50:00,
2013-06-29 09:51:00,87.4,75.1,29.78,WSW,250,4.0,7.0,67,0.00,,---,0.00,VWS V14.01,2013-06-29 13:51:00,
2013-06-29 09:52:00,87.4,74.2,29.78,SW,235,0.0,7.0,65,0.00,,---,0.00,VWS V14.01,2013-06-29 13:52:00,
2013-06-29 09:53:00,87.4,74.2,29.78,SW,235,0.0,7.0,65,0.00,,---,0.00,VWS V14.01,2013-06-29 13:53:00,
2013-06-29 09:55:00,87.2,74.5,29.78,WSW,252,0.0,7.0,66,0.00,,---,0.00,VWS V14.01,2013-06-29 13:55:00,
2013-06-29 09:57:00,87.4,74.7,29.78,WSW,245,1.0,7.0,66,0.00,,---,0.00,VWS V14.01,2013-06-29 13:57:00,
2013-06-29 09:58:00,87.4,74.7,29.78,West,259,0.0,7.0,66,0.00,,---,0.00,VWS V14.01,2013-06-29 13:58:00,
2013-06-29 09:59:00,87.4,74.7,29.78,West,259,0.0,7.0,66,0.00,,---,0.00,VWS V14.01,2013-06-29 13:59:00,
2013-06-29 10:02:00,87.4,75.1,29.78,WSW,256,2.0,7.0,67,0.00,,---,0.00,VWS V14.01,2013-06-29 14:02:00,
2013-06-29 10:03:00,87.4,75.1,29.78,WSW,256,0.0,7.0,67,0.00,,---,0.00,VWS V14.01,2013-06-29 14:03:00,
2013-06-29 10:04:00,87.4,75.1,29.78,WSW,247,0.0,0.0,67,0.00,,---,0.00,VWS V14.01,2013-06-29 14:04:00,
2013-06-29 10:05:00,87.2,74.9,29.78,WSW,247,0.0,3.0,67,0.00,,---,0.00,VWS V14.01,2013-06-29 14:05:00,
2013-06-29 10:07:00,87.2,74.9,29.78,WSW,251,0.0,3.0,67,0.00,,---,0.00,VWS V14.01,2013-06-29 14:07:00,
2013-06-29 10:08:00,87.0,74.7,29.78,WSW,245,0.0,3.0,67,0.00,,---,0.00,VWS V14.01,2013-06-29 14:08:00,
2013-06-29 10:09:00,86.7,74.4,29.78,SW,232,0.0,7.0,67,0.00,,---,0.00,VWS V14.01,2013-06-29 14:09:00,
2013-06-29 10:10:00,86.5,74.2,29.78,SW,233,5.0,7.0,67,0.00,,---,0.00,VWS V14.01,2013-06-29 14:10:00,
2013-06-29 10:12:00,85.7,72.6,29.78,SSW,212,4.0,10.0,65,0.00,,---,0.00,VWS V14.01,2013-06-29 14:12:00,
2013-06-29 10:13:00,84.7,72.5,29.78,SW,223,5.0,12.0,67,0.00,,---,0.00,VWS V14.01,2013-06-29 14:13:00,
2013-06-29 10:14:00,84.0,71.4,29.78,WSW,242,9.0,12.0,66,0.00,,---,0.00,VWS V14.01,2013-06-29 14:14:00,
2013-06-29 10:15:00,83.2,72.0,29.78,WSW,243,5.0,12.0,69,0.02,,---,0.02,VWS V14.01,2013-06-29 14:15:00,
2013-06-29 10:16:00,82.2,71.4,29.78,SW,226,6.0,12.0,70,0.04,,---,0.04,VWS V14.01,2013-06-29 14:16:00,
2013-06-29 10:17:00,80.9,71.4,29.78,South,184,0.0,12.0,73,0.07,,---,0.07,VWS V14.01,2013-06-29 14:17:00,
2013-06-29 10:19:00,79.6,71.4,29.78,SSE,167,0.0,12.0,76,0.09,,---,0.09,VWS V14.01,2013-06-29 14:19:00,
2013-06-29 10:20:00,79.4,71.2,29.78,SSE,167,0.0,12.0,76,0.09,,---,0.09,VWS V14.01,2013-06-29 14:20:00,
2013-06-29 10:21:00,78.8,71.0,29.78,SSE,167,4.0,12.0,77,0.09,,---,0.09,VWS V14.01,2013-06-29 14:21:00,
2013-06-29 10:23:00,78.1,70.7,29.78,SSE,167,0.0,12.0,78,0.09,,---,0.09,VWS V14.01,2013-06-29 14:23:00,
2013-06-29 10:25:00,77.7,70.3,29.78,SSE,167,0.0,12.0,78,0.09,,---,0.09,VWS V14.01,2013-06-29 14:25:00,
2013-06-29 10:26:00,77.6,70.2,29.78,SSE,167,0.0,12.0,78,0.09,,---,0.09,VWS V14.01,2013-06-29 14:26:00,
2013-06-29 10:29:00,77.0,70.7,29.78,SSE,167,0.0,12.0,81,0.09,,---,0.09,VWS V14.01,2013-06-29 14:29:00,
2013-06-29 10:30:00,76.8,70.5,29.78,SSE,167,0.0,12.0,81,0.09,,---,0.09,VWS V14.01,2013-06-29 14:30:00,
2013-06-29 10:31:00,76.7,70.8,29.78,SSE,167,0.0,12.0,82,0.09,,---,0.09,VWS V14.01,2013-06-29 14:31:00,
2013-06-29 10:33:00,76.5,71.0,29.78,SSE,167,0.0,12.0,83,0.09,,---,0.09,VWS V14.01,2013-06-29 14:33:00,
2013-06-29 10:34:00,76.5,71.3,29.78,SSE,167,0.0,12.0,84,0.09,,---,0.09,VWS V14.01,2013-06-29 14:34:00,
2013-06-29 10:35:00,76.5,71.3,29.78,SSE,167,0.0,12.0,84,0.09,,---,0.09,VWS V14.01,2013-06-29 14:35:00,
2013-06-29 10:37:00,76.3,71.5,29.78,SSE,167,0.0,12.0,85,0.09,,---,0.09,VWS V14.01,2013-06-29 14:37:00,
2013-06-29 10:38:00,76.3,71.5,29.78,SSE,167,0.0,12.0,85,0.09,,---,0.09,VWS V14.01,2013-06-29 14:38:00,
2013-06-29 10:39:00,76.1,71.6,29.78,SSE,167,0.0,12.0,86,0.09,,---,0.09,VWS V14.01,2013-06-29 14:39:00,
2013-06-29 10:42:00,76.1,71.6,29.78,SSE,167,0.0,12.0,86,0.09,,---,0.09,VWS V14.01,2013-06-29 14:42:00,
2013-06-29 10:44:00,76.3,72.2,29.78,SSE,167,0.0,12.0,87,0.09,,---,0.09,VWS V14.01,2013-06-29 14:44:00,
2013-06-29 10:45:00,76.3,72.5,29.78,SSE,167,0.0,12.0,88,0.09,,---,0.09,VWS V14.01,2013-06-29 14:45:00,
2013-06-29 10:47:00,76.5,73.0,29.78,SSE,167,0.0,12.0,89,0.09,,---,0.09,VWS V14.01,2013-06-29 14:47:00,
2013-06-29 10:50:00,76.7,73.6,29.78,SSE,167,0.0,12.0,90,0.09,,---,0.09,VWS V14.01,2013-06-29 14:50:00,
2013-06-29 10:51:00,76.8,73.7,29.78,SSE,167,0.0,12.0,90,0.09,,---,0.09,VWS V14.01,2013-06-29 14:51:00,
2013-06-29 10:53:00,77.2,74.4,29.78,SSE,167,0.0,12.0,91,0.09,,---,0.09,VWS V14.01,2013-06-29 14:53:00,
2013-06-29 10:54:00,77.4,74.6,29.78,SSE,167,0.0,12.0,91,0.09,,---,0.09,VWS V14.01,2013-06-29 14:54:00,
2013-06-29 10:58:00,78.5,75.7,29.78,SSE,167,0.0,12.0,91,0.09,,---,0.09,VWS V14.01,2013-06-29 14:58:00,
2013-06-29 10:59:00,78.5,75.7,29.78,SSE,167,0.0,12.0,91,0.09,,---,0.09,VWS V14.01,2013-06-29 14:59:00,
2013-06-29 11:00:00,78.6,75.8,29.78,SSE,167,0.0,12.0,91,0.09,,---,0.09,VWS V14.01,2013-06-29 15:00:00,
2013-06-29 11:01:00,79.0,76.5,29.78,SSE,167,0.0,12.0,92,0.09,,---,0.09,VWS V14.01,2013-06-29 15:01:00,
2013-06-29 11:02:00,79.2,76.7,29.78,SSE,167,0.0,12.0,92,0.09,,---,0.09,VWS V14.01,2013-06-29 15:02:00,
2013-06-29 11:04:00,79.8,77.6,29.78,South,170,0.0,12.0,93,0.09,,---,0.09,VWS V14.01,2013-06-29 15:04:00,
2013-06-29 11:05:00,80.5,78.0,29.78,South,170,0.0,0.0,92,0.09,,---,0.09,VWS V14.01,2013-06-29 15:05:00,
2013-06-29 11:08:00,81.1,78.6,29.78,SW,231,0.0,1.0,92,0.09,,---,0.09,VWS V14.01,2013-06-29 15:08:00,
2013-06-29 11:09:00,81.4,78.9,29.78,SW,231,0.0,1.0,92,0.09,,---,0.09,VWS V14.01,2013-06-29 15:09:00,
2013-06-29 11:11:00,81.8,78.9,29.78,WSW,244,0.0,1.0,91,0.09,,---,0.09,VWS V14.01,2013-06-29 15:11:00,
2013-06-29 11:13:00,82.0,78.8,29.78,WSW,244,0.0,1.0,90,0.09,,---,0.09,VWS V14.01,2013-06-29 15:13:00,
2013-06-29 11:14:00,82.2,78.3,29.78,SW,233,2.0,2.0,88,0.09,,---,0.09,VWS V14.01,2013-06-29 15:14:00,
2013-06-29 11:17:00,82.8,78.2,29.78,SW,233,0.0,2.0,86,0.09,,---,0.09,VWS V14.01,2013-06-29 15:17:00,
2013-06-29 11:18:00,83.2,78.2,29.78,SW,233,0.0,2.0,85,0.09,,---,0.09,VWS V14.01,2013-06-29 15:18:00,
2013-06-29 11:19:00,83.4,78.1,29.78,SW,233,0.0,2.0,84,0.09,,---,0.09,VWS V14.01,2013-06-29 15:19:00,
2013-06-29 11:20:00,83.4,78.1,29.78,SW,233,0.0,2.0,84,0.09,,---,0.09,VWS V14.01,2013-06-29 15:20:00,
2013-06-29 11:23:00,84.0,77.9,29.78,WSW,257,0.0,2.0,82,0.09,,---,0.09,VWS V14.01,2013-06-29 15:23:00,
2013-06-29 11:24:00,84.1,77.6,29.78,WSW,247,0.0,4.0,81,0.09,,---,0.09,VWS V14.01,2013-06-29 15:24:00,
2013-06-29 11:25:00,84.3,77.1,29.78,WSW,247,0.0,4.0,79,0.09,,---,0.09,VWS V14.01,2013-06-29 15:25:00,
2013-06-29 11:27:00,84.7,77.5,29.78,WSW,249,0.0,8.0,79,0.09,,---,0.09,VWS V14.01,2013-06-29 15:27:00,
2013-06-29 11:28:00,84.7,76.7,29.78,WSW,249,0.0,8.0,77,0.09,,---,0.09,VWS V14.01,2013-06-29 15:28:00,
2013-06-29 11:30:00,85.3,77.7,29.78,WSW,249,0.0,8.0,78,0.09,,---,0.09,VWS V14.01,2013-06-29 15:30:00,
2013-06-29 11:32:00,85.3,76.1,29.78,SW,226,0.0,8.0,74,0.09,,---,0.09,VWS V14.01,2013-06-29 15:32:00,
2013-06-29 11:33:00,85.5,76.7,29.79,SW,226,0.0,8.0,75,0.09,,---,0.09,VWS V14.01,2013-06-29 15:33:00,
2013-06-29 11:35:00,85.9,77.5,29.79,SW,226,0.0,8.0,76,0.09,,---,0.09,VWS V14.01,2013-06-29 15:35:00,
2013-06-29 11:36:00,86.1,77.2,29.79,WNW,299,0.0,8.0,75,0.09,,---,0.09,VWS V14.01,2013-06-29 15:36:00,
2013-06-29 11:37:00,86.1,76.4,29.79,SW,229,0.0,8.0,73,0.09,,---,0.09,VWS V14.01,2013-06-29 15:37:00,
2013-06-29 11:40:00,86.1,76.0,29.79,WSW,245,0.0,8.0,72,0.09,,---,0.09,VWS V14.01,2013-06-29 15:40:00,
2013-06-29 11:41:00,86.1,76.4,29.79,WSW,245,1.0,8.0,73,0.09,,---,0.09,VWS V14.01,2013-06-29 15:41:00,
2013-06-29 11:43:00,86.3,75.8,29.79,WSW,245,0.0,8.0,71,0.09,,---,0.09,VWS V14.01,2013-06-29 15:43:00,
2013-06-29 11:45:00,86.3,75.8,29.79,WSW,248,0.0,8.0,71,0.09,,---,0.09,VWS V14.01,2013-06-29 15:45:00,
2013-06-29 11:46:00,86.3,74.9,29.79,WSW,248,0.0,8.0,69,0.09,,---,0.09,VWS V14.01,2013-06-29 15:46:00,
2013-06-29 11:47:00,86.5,75.6,29.79,WSW,252,4.0,8.0,70,0.09,,---,0.09,VWS V14.01,2013-06-29 15:47:00,
2013-06-29 11:50:00,86.5,74.2,29.79,West,272,4.0,8.0,67,0.09,,---,0.09,VWS V14.01,2013-06-29 15:50:00,
2013-06-29 11:51:00,86.5,74.2,29.79,WNW,286,4.0,8.0,67,0.09,,---,0.09,VWS V14.01,2013-06-29 15:51:00,
2013-06-29 11:53:00,86.5,74.7,29.79,West,259,0.0,8.0,68,0.09,,---,0.09,VWS V14.01,2013-06-29 15:53:00,
2013-06-29 11:55:00,87.0,76.0,29.79,West,259,0.0,8.0,70,0.09,,---,0.09,VWS V14.01,2013-06-29 15:55:00,
2013-06-29 11:56:00,87.0,75.6,29.79,WSW,249,0.0,8.0,69,0.09,,---,0.09,VWS V14.01,2013-06-29 15:56:00,
2013-06-29 11:57:00,87.0,76.9,29.79,WSW,249,0.0,8.0,72,0.09,,---,0.09,VWS V14.01,2013-06-29 15:57:00,
2013-06-29 11:58:00,87.2,76.7,29.79,West,272,0.0,8.0,71,0.09,,---,0.09,VWS V14.01,2013-06-29 15:58:00,
2013-06-29 12:00:00,87.2,75.8,29.79,WSW,257,4.0,8.0,69,0.09,,---,0.09,VWS V14.01,2013-06-29 16:00:00,
2013-06-29 12:02:00,87.2,75.8,29.79,WSW,257,1.0,8.0,69,0.09,,---,0.09,VWS V14.01,2013-06-29 16:02:00,
2013-06-29 12:03:00,87.2,74.9,29.79,West,275,0.0,8.0,67,0.09,,---,0.09,VWS V14.01,2013-06-29 16:03:00,
2013-06-29 12:05:00,87.4,74.7,29.78,West,275,0.0,0.0,66,0.00,,---,0.09,VWS V14.01,2013-06-29 16:05:00,
2013-06-29 12:09:00,87.6,74.4,29.78,SW,231,1.0,5.0,65,0.00,,---,0.09,VWS V14.01,2013-06-29 16:09:00,
2013-06-29 12:10:00,87.6,74.8,29.78,SW,232,0.0,5.0,66,0.00,,---,0.09,VWS V14.01,2013-06-29 16:10:00,
2013-06-29 12:12:00,87.8,74.1,29.78,SW,233,2.0,5.0,64,0.00,,---,0.09,VWS V14.01,2013-06-29 16:12:00,
2013-06-29 12:13:00,87.8,73.6,29.78,WSW,257,2.0,10.0,63,0.00,,---,0.09,VWS V14.01,2013-06-29 16:13:00,
2013-06-29 12:16:00,87.8,74.1,29.78,WSW,257,0.0,10.0,64,0.00,,---,0.09,VWS V14.01,2013-06-29 16:16:00,
2013-06-29 12:17:00,87.8,74.1,29.78,WSW,256,5.0,10.0,64,0.00,,---,0.09,VWS V14.01,2013-06-29 16:17:00,
2013-06-29 12:18:00,87.8,73.6,29.78,WSW,250,4.0,10.0,63,0.00,,---,0.09,VWS V14.01,2013-06-29 16:18:00,
2013-06-29 12:19:00,87.4,72.3,29.78,West,274,8.0,10.0,61,0.00,,---,0.09,VWS V14.01,2013-06-29 16:19:00,
2013-06-29 12:21:00,87.4,73.3,29.78,WSW,250,0.0,10.0,63,0.00,,---,0.09,VWS V14.01,2013-06-29 16:21:00,
2013-06-29 12:22:00,87.4,73.7,29.78,WSW,247,1.0,10.0,64,0.00,,---,0.09,VWS V14.01,2013-06-29 16:22:00,
2013-06-29 12:23:00,87.4,73.3,29.78,SW,219,0.0,10.0,63,0.00,,---,0.09,VWS V14.01,2013-06-29 16:23:00,
2013-06-29 12:24:00,87.6,73.9,29.78,SW,217,1.0,10.0,64,0.00,,---,0.09,VWS V14.01,2013-06-29 16:24:00,
2013-06-29 12:27:00,87.8,74.1,29.78,West,271,0.0,10.0,64,0.00,,---,0.09,VWS V14.01,2013-06-29 16:27:00,
2013-06-29 12:28:00,87.8,74.1,29.78,West,270,1.0,10.0,64,0.00,,---,0.09,VWS V14.01,2013-06-29 16:28:00,
2013-06-29 12:31:00,88.0,74.8,29.78,West,269,0.0,10.0,65,0.00,,---,0.09,VWS V14.01,2013-06-29 16:31:00,
2013-06-29 12:32:00,88.0,74.8,29.78,WSW,252,0.0,10.0,65,0.00,,---,0.09,VWS V14.01,2013-06-29 16:32:00,
2013-06-29 12:35:00,88.0,75.2,29.78,WSW,249,6.0,10.0,66,0.00,,---,0.09,VWS V14.01,2013-06-29 16:35:00,
2013-06-29 12:36:00,88.0,75.2,29.78,SW,229,0.0,10.0,66,0.00,,---,0.09,VWS V14.01,2013-06-29 16:36:00,
2013-06-29 12:37:00,88.0,75.2,29.78,SW,229,0.0,10.0,66,0.00,,---,0.09,VWS V14.01,2013-06-29 16:37:00,
2013-06-29 12:38:00,88.0,75.7,29.78,WSW,256,0.0,10.0,67,0.00,,---,0.09,VWS V14.01,2013-06-29 16:38:00,
2013-06-29 12:40:00,87.8,75.0,29.78,WSW,255,0.0,10.0,66,0.00,,---,0.09,VWS V14.01,2013-06-29 16:40:00,
2013-06-29 12:41:00,87.8,75.0,29.78,WSW,255,0.0,10.0,66,0.00,,---,0.09,VWS V14.01,2013-06-29 16:41:00,
2013-06-29 12:43:00,87.6,74.8,29.78,SSW,208,2.0,10.0,66,0.00,,---,0.09,VWS V14.01,2013-06-29 16:43:00,
2013-06-29 12:46:00,87.2,74.0,29.78,SW,234,0.0,10.0,65,0.00,,---,0.09,VWS V14.01,2013-06-29 16:46:00,
2013-06-29 12:48:00,87.6,75.3,29.78,SW,217,1.0,10.0,67,0.00,,---,0.09,VWS V14.01,2013-06-29 16:48:00,
2013-06-29 12:50:00,87.8,75.5,29.78,SW,217,0.0,10.0,67,0.00,,---,0.09,VWS V14.01,2013-06-29 16:50:00,
2013-06-29 12:51:00,88.0,75.2,29.78,SW,217,0.0,10.0,66,0.00,,---,0.09,VWS V14.01,2013-06-29 16:51:00,
2013-06-29 12:52:00,88.0,75.2,29.78,SW,217,0.0,10.0,66,0.00,,---,0.09,VWS V14.01,2013-06-29 16:52:00,
2013-06-29 12:53:00,88.2,75.4,29.78,WSW,255,0.0,10.0,66,0.00,,---,0.09,VWS V14.01,2013-06-29 16:53:00,
2013-06-29 12:54:00,88.2,75.4,29.78,WSW,255,0.0,10.0,66,0.00,,---,0.09,VWS V14.01,2013-06-29 16:54:00,
2013-06-29 12:55:00,88.0,74.8,29.78,SW,236,8.0,10.0,65,0.00,,---,0.09,VWS V14.01,2013-06-29 16:55:00,
2013-06-29 12:56:00,87.8,74.1,29.78,SSW,201,1.0,10.0,64,0.00,,---,0.09,VWS V14.01,2013-06-29 16:56:00,
2013-06-29 12:58:00,87.4,73.7,29.78,WSW,248,7.0,10.0,64,0.00,,---,0.09,VWS V14.01,2013-06-29 16:58:00,
2013-06-29 12:59:00,87.2,74.0,29.78,SSW,193,0.0,10.0,65,0.00,,---,0.09,VWS V14.01,2013-06-29 16:59:00,
2013-06-29 13:01:00,86.7,74.0,29.78,SSW,193,0.0,10.0,66,0.00,,---,0.09,VWS V14.01,2013-06-29 17:01:00,
2013-06-29 13:02:00,86.5,74.2,29.78,SSW,193,0.0,10.0,67,0.00,,---,0.09,VWS V14.01,2013-06-29 17:02:00,
2013-06-29 13:03:00,86.5,74.2,29.78,SSW,193,0.0,10.0,67,0.00,,---,0.09,VWS V14.01,2013-06-29 17:03:00,
2013-06-29 13:07:00,86.5,75.6,29.78,SSW,195,0.0,0.0,70,0.00,,---,0.09,VWS V14.01,2013-06-29 17:07:00,
2013-06-29 13:08:00,86.5,75.6,29.78,SSW,195,0.0,0.0,70,0.00,,---,0.09,VWS V14.01,2013-06-29 17:08:00,
2013-06-29 13:09:00,86.7,75.8,29.78,SSW,205,0.0,0.0,70,0.00,,---,0.09,VWS V14.01,2013-06-29 17:09:00,
2013-06-29 13:11:00,87.0,76.0,29.78,SSW,206,0.0,1.0,70,0.00,,---,0.09,VWS V14.01,2013-06-29 17:11:00,
2013-06-29 13:12:00,87.2,76.2,29.78,SW,224,0.0,2.0,70,0.00,,---,0.09,VWS V14.01,2013-06-29 17:12:00,
2013-06-29 13:13:00,87.4,76.0,29.78,WSW,241,0.0,10.0,69,0.00,,---,0.09,VWS V14.01,2013-06-29 17:13:00,
2013-06-29 13:15:00,87.6,75.7,29.78,SW,236,2.0,10.0,68,0.00,,---,0.09,VWS V14.01,2013-06-29 17:15:00,
2013-06-29 13:16:00,87.6,75.7,29.78,SW,231,0.0,10.0,68,0.00,,---,0.09,VWS V14.01,2013-06-29 17:16:00,
2013-06-29 13:17:00,87.8,75.5,29.78,West,274,0.0,10.0,67,0.00,,---,0.09,VWS V14.01,2013-06-29 17:17:00,
2013-06-29 13:19:00,87.6,75.7,29.77,West,274,0.0,10.0,68,0.00,,---,0.09,VWS V14.01,2013-06-29 17:19:00,
2013-06-29 13:21:00,87.8,75.9,29.77,West,272,0.0,10.0,68,0.00,,---,0.09,VWS V14.01,2013-06-29 17:21:00,
2013-06-29 13:22:00,87.8,75.5,29.77,WSW,238,1.0,10.0,67,0.00,,---,0.09,VWS V14.01,2013-06-29 17:22:00,
2013-06-29 13:23:00,87.8,75.5,29.77,WSW,252,1.0,10.0,67,0.00,,---,0.09,VWS V14.01,2013-06-29 17:23:00,
2013-06-29 13:25:00,87.8,75.0,29.77,WSW,255,0.0,10.0,66,0.00,,---,0.09,VWS V14.01,2013-06-29 17:25:00,
2013-06-29 13:26:00,87.6,75.3,29.77,WSW,241,4.0,10.0,67,0.00,,---,0.09,VWS V14.01,2013-06-29 17:26:00,
2013-06-29 13:28:00,87.6,75.3,29.77,WSW,243,0.0,10.0,67,0.00,,---,0.09,VWS V14.01,2013-06-29 17:28:00,
2013-06-29 13:30:00,87.6,75.3,29.77,SW,233,9.0,13.0,67,0.00,,---,0.09,VWS V14.01,2013-06-29 17:30:00,
2013-06-29 13:31:00,87.4,75.1,29.77,SSW,202,0.0,13.0,67,0.00,,---,0.09,VWS V14.01,2013-06-29 17:31:00,
2013-06-29 13:33:00,87.6,75.7,29.77,SSW,199,0.0,13.0,68,0.00,,---,0.09,VWS V14.01,2013-06-29 17:33:00,
2013-06-29 13:36:00,87.8,75.5,29.77,SW,232,0.0,13.0,67,0.00,,---,0.09,VWS V14.01,2013-06-29 17:36:00,
2013-06-29 13:37:00,87.8,75.0,29.77,SW,232,0.0,13.0,66,0.00,,---,0.09,VWS V14.01,2013-06-29 17:37:00,
2013-06-29 13:40:00,88.0,75.7,29.77,SW,232,0.0,13.0,67,0.00,,---,0.09,VWS V14.01,2013-06-29 17:40:00,
2013-06-29 13:41:00,88.2,75.9,29.77,WSW,246,0.0,13.0,67,0.00,,---,0.09,VWS V14.01,2013-06-29 17:41:00,
2013-06-29 13:43:00,88.2,75.4,29.77,WSW,246,10.0,13.0,66,0.00,,---,0.09,VWS V14.01,2013-06-29 17:43:00,
2013-06-29 13:45:00,87.8,75.0,29.77,WSW,246,0.0,13.0,66,0.00,,---,0.09,VWS V14.01,2013-06-29 17:45:00,
2013-06-29 13:47:00,87.6,75.3,29.77,WSW,242,3.0,13.0,67,0.00,,---,0.09,VWS V14.01,2013-06-29 17:47:00,
2013-06-29 13:48:00,87.4,75.1,29.77,WNW,300,5.0,13.0,67,0.00,,---,0.09,VWS V14.01,2013-06-29 17:48:00,
2013-06-29 13:50:00,87.4,75.6,29.77,WSW,243,0.0,13.0,68,0.00,,---,0.09,VWS V14.01,2013-06-29 17:50:00,
2013-06-29 13:54:00,87.8,75.5,29.77,West,274,0.0,13.0,67,0.00,,---,0.09,VWS V14.01,2013-06-29 17:54:00,
2013-06-29 13:56:00,88.0,75.7,29.77,WSW,241,0.0,13.0,67,0.00,,---,0.09,VWS V14.01,2013-06-29 17:56:00,
2013-06-29 13:59:00,88.0,75.7,29.77,SSW,197,5.0,13.0,67,0.00,,---,0.09,VWS V14.01,2013-06-29 17:59:00,
2013-06-29 14:02:00,88.2,75.4,29.77,SW,229,0.0,13.0,66,0.00,,---,0.09,VWS V14.01,2013-06-29 18:02:00,
2013-06-29 14:04:00,88.2,75.4,29.77,SW,233,1.0,13.0,66,0.00,,---,0.09,VWS V14.01,2013-06-29 18:04:00,
2013-06-29 14:05:00,88.0,75.7,29.77,SW,227,0.0,2.0,67,0.00,,---,0.09,VWS V14.01,2013-06-29 18:05:00,
2013-06-29 14:07:00,88.2,75.4,29.77,WSW,241,0.0,5.0,66,0.00,,---,0.09,VWS V14.01,2013-06-29 18:07:00,
2013-06-29 14:10:00,88.6,76.2,29.77,WSW,243,0.0,5.0,67,0.00,,---,0.09,VWS V14.01,2013-06-29 18:10:00,
2013-06-29 14:12:00,88.8,75.5,29.77,SW,233,11.0,11.0,65,0.00,,---,0.09,VWS V14.01,2013-06-29 18:12:00,
2013-06-29 14:15:00,89.0,75.2,29.77,SW,233,0.0,11.0,64,0.00,,---,0.09,VWS V14.01,2013-06-29 18:15:00,
2013-06-29 14:16:00,89.0,75.2,29.77,SW,233,0.0,11.0,64,0.00,,---,0.09,VWS V14.01,2013-06-29 18:16:00,
2013-06-29 14:17:00,88.6,74.9,29.77,SW,215,0.0,11.0,64,0.00,,---,0.09,VWS V14.01,2013-06-29 18:17:00,
2013-06-29 14:19:00,88.4,75.1,29.76,SW,225,0.0,11.0,65,0.00,,---,0.09,VWS V14.01,2013-06-29 18:19:00,
2013-06-29 14:21:00,88.4,76.1,29.76,SW,226,0.0,11.0,67,0.00,,---,0.09,VWS V14.01,2013-06-29 18:21:00,
2013-06-29 14:22:00,88.4,75.6,29.76,WSW,250,0.0,11.0,66,0.00,,---,0.09,VWS V14.01,2013-06-29 18:22:00,
2013-06-29 14:23:00,88.4,75.6,29.76,WSW,250,0.0,11.0,66,0.00,,---,0.09,VWS V14.01,2013-06-29 18:23:00,
2013-06-29 14:25:00,88.6,75.8,29.76,WSW,248,0.0,11.0,66,0.00,,---,0.09,VWS V14.01,2013-06-29 18:25:00,
2013-06-29 14:26:00,88.6,75.8,29.76,WSW,248,0.0,11.0,66,0.00,,---,0.09,VWS V14.01,2013-06-29 18:26:00,
2013-06-29 14:28:00,88.4,75.6,29.76,WSW,239,0.0,11.0,66,0.00,,---,0.09,VWS V14.01,2013-06-29 18:28:00,
2013-06-29 14:29:00,88.2,75.4,29.76,WSW,239,4.0,11.0,66,0.00,,---,0.09,VWS V14.01,2013-06-29 18:29:00,
2013-06-29 14:31:00,88.0,75.2,29.76,WSW,240,0.0,11.0,66,0.00,,---,0.09,VWS V14.01,2013-06-29 18:31:00,
2013-06-29 14:32:00,88.0,75.2,29.76,WSW,240,0.0,11.0,66,0.00,,---,0.09,VWS V14.01,2013-06-29 18:32:00,
2013-06-29 14:34:00,87.6,75.3,29.76,WSW,252,3.0,11.0,67,0.00,,---,0.09,VWS V14.01,2013-06-29 18:34:00,
2013-06-29 14:36:00,87.4,75.1,29.76,WSW,247,0.0,11.0,67,0.00,,---,0.09,VWS V14.01,2013-06-29 18:36:00,
2013-06-29 14:38:00,87.0,75.6,29.76,WSW,244,0.0,11.0,69,0.00,,---,0.09,VWS V14.01,2013-06-29 18:38:00,
2013-06-29 14:39:00,86.7,75.3,29.76,WSW,244,4.0,11.0,69,0.00,,---,0.09,VWS V14.01,2013-06-29 18:39:00,
2013-06-29 14:42:00,86.7,75.3,29.76,WSW,255,4.0,11.0,69,0.00,,---,0.09,VWS V14.01,2013-06-29 18:42:00,
2013-06-29 14:43:00,86.5,75.1,29.76,WSW,257,0.0,11.0,69,0.00,,---,0.09,VWS V14.01,2013-06-29 18:43:00,
2013-06-29 14:44:00,86.5,75.1,29.76,SSW,199,0.0,11.0,69,0.00,,---,0.09,VWS V14.01,2013-06-29 18:44:00,
2013-06-29 14:45:00,86.5,75.1,29.76,WSW,252,0.0,11.0,69,0.00,,---,0.09,VWS V14.01,2013-06-29 18:45:00,
2013-06-29 14:49:00,86.5,75.6,29.76,WSW,248,0.0,11.0,70,0.00,,---,0.09,VWS V14.01,2013-06-29 18:49:00,
2013-06-29 14:50:00,86.3,75.4,29.76,SW,232,2.0,12.0,70,0.00,,---,0.09,VWS V14.01,2013-06-29 18:50:00,
2013-06-29 14:54:00,86.1,74.8,29.76,West,262,5.0,12.0,69,0.00,,---,0.09,VWS V14.01,2013-06-29 18:54:00,
2013-06-29 14:55:00,86.1,75.2,29.76,West,260,1.0,12.0,70,0.00,,---,0.09,VWS V14.01,2013-06-29 18:55:00,
2013-06-29 14:59:00,86.1,75.2,29.76,WSW,258,7.0,12.0,70,0.00,,---,0.09,VWS V14.01,2013-06-29 18:59:00,
2013-06-29 15:00:00,86.1,75.2,29.76,SW,224,6.0,12.0,70,0.00,,---,0.09,VWS V14.01,2013-06-29 19:00:00,
2013-06-29 15:01:00,86.1,75.2,29.76,WSW,238,0.0,12.0,70,0.00,,---,0.09,VWS V14.01,2013-06-29 19:01:00,
2013-06-29 15:02:00,86.1,75.6,29.76,WNW,282,8.0,12.0,71,0.00,,---,0.09,VWS V14.01,2013-06-29 19:02:00,
2013-06-29 15:04:00,86.3,75.4,29.75,SW,234,1.0,1.0,70,0.00,,---,0.09,VWS V14.01,2013-06-29 19:04:00,
2013-06-29 15:05:00,86.5,75.6,29.75,SW,234,1.0,1.0,70,0.00,,---,0.09,VWS V14.01,2013-06-29 19:05:00,
2013-06-29 15:07:00,86.5,76.0,29.75,SW,234,0.0,1.0,71,0.00,,---,0.09,VWS V14.01,2013-06-29 19:07:00,
2013-06-29 15:08:00,86.7,76.2,29.75,SW,234,0.0,1.0,71,0.00,,---,0.09,VWS V14.01,2013-06-29 19:08:00,
2013-06-29 15:10:00,87.2,76.2,29.75,WSW,255,0.0,1.0,70,0.00,,---,0.09,VWS V14.01,2013-06-29 19:10:00,
2013-06-29 15:13:00,87.4,75.1,29.75,WSW,246,0.0,6.0,67,0.00,,---,0.09,VWS V14.01,2013-06-29 19:13:00,
2013-06-29 15:14:00,87.6,75.7,29.75,WSW,245,0.0,6.0,68,0.00,,---,0.09,VWS V14.01,2013-06-29 19:14:00,
2013-06-29 15:15:00,87.8,75.9,29.75,WSW,245,0.0,6.0,68,0.00,,---,0.09,VWS V14.01,2013-06-29 19:15:00,
2013-06-29 15:16:00,87.8,75.5,29.75,WSW,252,0.0,6.0,67,0.00,,---,0.09,VWS V14.01,2013-06-29 19:16:00,
2013-06-29 15:20:00,88.2,75.9,29.75,West,262,0.0,10.0,67,0.00,,---,0.09,VWS V14.01,2013-06-29 19:20:00,
2013-06-29 15:23:00,88.2,75.4,29.75,West,266,0.0,10.0,66,0.00,,---,0.09,VWS V14.01,2013-06-29 19:23:00,
2013-06-29 15:26:00,88.6,76.7,29.75,WSW,256,3.0,10.0,68,0.00,,---,0.09,VWS V14.01,2013-06-29 19:26:00,
2013-06-29 15:27:00,88.6,76.2,29.75,WSW,256,0.0,10.0,67,0.00,,---,0.09,VWS V14.01,2013-06-29 19:27:00,
2013-06-29 15:29:00,88.6,76.2,29.75,SSW,208,0.0,10.0,67,0.00,,---,0.09,VWS V14.01,2013-06-29 19:29:00,
2013-06-29 15:31:00,88.6,76.2,29.75,WSW,251,0.0,10.0,67,0.00,,---,0.09,VWS V14.01,2013-06-29 19:31:00,
2013-06-29 15:33:00,88.2,75.9,29.75,WSW,252,0.0,10.0,67,0.00,,---,0.09,VWS V14.01,2013-06-29 19:33:00,
2013-06-29 15:35:00,87.8,75.0,29.75,WSW,248,0.0,10.0,66,0.00,,---,0.09,VWS V14.01,2013-06-29 19:35:00,
2013-06-29 15:36:00,87.8,75.5,29.75,WSW,254,5.0,10.0,67,0.00,,---,0.09,VWS V14.01,2013-06-29 19:36:00,
2013-06-29 15:38:00,87.4,75.1,29.75,West,259,2.0,10.0,67,0.00,,---,0.09,VWS V14.01,2013-06-29 19:38:00,
2013-06-29 15:43:00,86.7,74.9,29.75,West,260,0.0,10.0,68,0.00,,---,0.09,VWS V14.01,2013-06-29 19:43:00,
2013-06-29 15:45:00,86.3,74.1,29.75,SW,229,1.0,10.0,67,0.00,,---,0.09,VWS V14.01,2013-06-29 19:45:00,
2013-06-29 15:48:00,85.5,74.2,29.75,NW,305,0.0,10.0,69,0.00,,---,0.09,VWS V14.01,2013-06-29 19:48:00,
2013-06-29 15:49:00,85.1,74.2,29.75,WSW,243,0.0,10.0,70,0.00,,---,0.09,VWS V14.01,2013-06-29 19:49:00,
2013-06-29 15:53:00,84.5,74.9,29.75,WNW,288,0.0,10.0,73,0.00,,---,0.09,VWS V14.01,2013-06-29 19:53:00,
2013-06-29 15:54:00,84.5,75.3,29.75,WNW,288,0.0,10.0,74,0.00,,---,0.09,VWS V14.01,2013-06-29 19:54:00,
2013-06-29 15:59:00,84.0,75.6,29.75,WNW,290,0.0,10.0,76,0.00,,---,0.09,VWS V14.01,2013-06-29 19:59:00,
2013-06-29 16:02:00,83.8,75.8,29.75,WNW,288,2.0,10.0,77,0.00,,---,0.09,VWS V14.01,2013-06-29 20:02:00,
2013-06-29 16:04:00,83.2,75.6,29.75,West,262,0.0,10.0,78,0.00,,---,0.09,VWS V14.01,2013-06-29 20:04:00,
2013-06-29 16:05:00,83.0,75.4,29.75,West,262,0.0,2.0,78,0.03,,---,0.12,VWS V14.01,2013-06-29 20:05:00,
2013-06-29 16:06:00,82.8,75.6,29.75,SE,135,0.0,2.0,79,0.06,,---,0.15,VWS V14.01,2013-06-29 20:06:00,
2013-06-29 16:07:00,82.2,75.4,29.75,WNW,286,4.0,4.0,80,0.11,,---,0.20,VWS V14.01,2013-06-29 20:07:00,
2013-06-29 16:10:00,80.3,74.7,29.75,NNW,329,6.0,9.0,83,0.22,,---,0.31,VWS V14.01,2013-06-29 20:10:00,
2013-06-29 16:11:00,79.9,74.6,29.75,NW,326,2.0,9.0,84,0.27,,---,0.36,VWS V14.01,2013-06-29 20:11:00,
2013-06-29 16:12:00,79.4,74.5,29.75,NNW,338,0.0,9.0,85,0.30,,---,0.39,VWS V14.01,2013-06-29 20:12:00,
2013-06-29 16:15:00,78.8,74.6,29.75,NNW,328,4.0,9.0,87,0.31,,---,0.40,VWS V14.01,2013-06-29 20:15:00,
2013-06-29 16:16:00,78.3,74.5,29.75,NNW,338,0.0,9.0,88,0.32,,---,0.41,VWS V14.01,2013-06-29 20:16:00,
2013-06-29 16:19:00,77.6,74.1,29.75,NNW,335,0.0,9.0,89,0.33,,---,0.42,VWS V14.01,2013-06-29 20:19:00,
2013-06-29 16:21:00,77.4,74.2,29.75,NNW,335,0.0,9.0,90,0.33,,---,0.42,VWS V14.01,2013-06-29 20:21:00,
2013-06-29 16:22:00,77.2,74.0,29.75,NNW,335,0.0,9.0,90,0.33,,---,0.42,VWS V14.01,2013-06-29 20:22:00,
2013-06-29 16:23:00,77.2,74.0,29.75,NNW,335,0.0,9.0,90,0.33,,---,0.42,VWS V14.01,2013-06-29 20:23:00,
2013-06-29 16:25:00,77.0,74.2,29.75,NNW,335,0.0,9.0,91,0.33,,---,0.42,VWS V14.01,2013-06-29 20:25:00,
2013-06-29 16:26:00,77.0,74.2,29.75,NNW,335,0.0,9.0,91,0.33,,---,0.42,VWS V14.01,2013-06-29 20:26:00,
2013-06-29 16:28:00,77.0,74.5,29.75,NNW,335,0.0,9.0,92,0.33,,---,0.42,VWS V14.01,2013-06-29 20:28:00,
2013-06-29 16:30:00,77.2,74.7,29.75,NNW,335,0.0,9.0,92,0.33,,---,0.42,VWS V14.01,2013-06-29 20:30:00,
2013-06-29 16:31:00,77.2,75.0,29.75,NNW,335,0.0,9.0,93,0.33,,---,0.42,VWS V14.01,2013-06-29 20:31:00,
2013-06-29 16:33:00,77.4,75.2,29.75,NNW,335,0.0,9.0,93,0.33,,---,0.42,VWS V14.01,2013-06-29 20:33:00,
2013-06-29 16:34:00,77.6,75.4,29.75,NNW,335,0.0,9.0,93,0.33,,---,0.42,VWS V14.01,2013-06-29 20:34:00,
2013-06-29 16:35:00,77.6,75.4,29.75,NNW,335,0.0,9.0,93,0.33,,---,0.42,VWS V14.01,2013-06-29 20:35:00,
2013-06-29 16:37:00,77.7,75.8,29.75,NNW,335,0.0,9.0,94,0.33,,---,0.42,VWS V14.01,2013-06-29 20:37:00,
2013-06-29 16:39:00,77.9,76.0,29.75,NNW,335,0.0,9.0,94,0.33,,---,0.42,VWS V14.01,2013-06-29 20:39:00,
2013-06-29 16:41:00,77.9,76.0,29.75,NNW,335,0.0,9.0,94,0.33,,---,0.42,VWS V14.01,2013-06-29 20:41:00,
2013-06-29 16:43:00,78.1,76.2,29.75,NNW,335,0.0,9.0,94,0.33,,---,0.42,VWS V14.01,2013-06-29 20:43:00,
2013-06-29 16:44:00,77.9,76.0,29.75,NNW,335,0.0,9.0,94,0.33,,---,0.42,VWS V14.01,2013-06-29 20:44:00,
2013-06-29 16:46:00,77.7,75.8,29.75,NNW,335,0.0,9.0,94,0.33,,---,0.42,VWS V14.01,2013-06-29 20:46:00,
2013-06-29 16:47:00,77.7,75.8,29.75,NNW,335,0.0,9.0,94,0.33,,---,0.42,VWS V14.01,2013-06-29 20:47:00,
2013-06-29 16:48:00,77.7,75.8,29.75,NNW,335,0.0,9.0,94,0.33,,---,0.42,VWS V14.01,2013-06-29 20:48:00,
2013-06-29 16:49:00,77.7,75.8,29.75,NNW,335,0.0,9.0,94,0.33,,---,0.42,VWS V14.01,2013-06-29 20:49:00,
2013-06-29 16:50:00,77.7,75.8,29.75,NNW,335,0.0,9.0,94,0.33,,---,0.42,VWS V14.01,2013-06-29 20:50:00,
2013-06-29 16:51:00,77.6,75.7,29.75,NNW,335,0.0,9.0,94,0.33,,---,0.42,VWS V14.01,2013-06-29 20:51:00,
2013-06-29 16:55:00,77.7,75.8,29.75,NNW,335,0.0,9.0,94,0.33,,---,0.42,VWS V14.01,2013-06-29 20:55:00,
2013-06-29 16:56:00,77.7,75.8,29.75,NNW,335,0.0,9.0,94,0.33,,---,0.42,VWS V14.01,2013-06-29 20:56:00,
2013-06-29 16:58:00,77.7,75.8,29.75,NNW,335,0.0,9.0,94,0.33,,---,0.42,VWS V14.01,2013-06-29 20:58:00,
2013-06-29 16:59:00,77.7,75.8,29.75,NNW,335,0.0,9.0,94,0.33,,---,0.42,VWS V14.01,2013-06-29 20:59:00,
2013-06-29 17:00:00,77.7,75.8,29.75,NNW,335,0.0,9.0,94,0.33,,---,0.42,VWS V14.01,2013-06-29 21:00:00,
2013-06-29 17:05:00,77.4,75.5,29.75,NNW,334,0.0,0.0,94,0.33,,---,0.42,VWS V14.01,2013-06-29 21:05:00,
2013-06-29 17:06:00,77.4,75.5,29.75,NNW,335,0.0,0.0,94,0.33,,---,0.42,VWS V14.01,2013-06-29 21:06:00,
2013-06-29 17:07:00,77.4,75.5,29.75,NNW,335,0.0,0.0,94,0.33,,---,0.42,VWS V14.01,2013-06-29 21:07:00,
2013-06-29 17:08:00,77.4,75.9,29.75,NNW,335,0.0,0.0,95,0.33,,---,0.42,VWS V14.01,2013-06-29 21:08:00,
2013-06-29 17:10:00,77.6,76.1,29.75,NNW,335,0.0,0.0,95,0.33,,---,0.42,VWS V14.01,2013-06-29 21:10:00,
2013-06-29 17:11:00,77.7,76.2,29.75,NNW,335,0.0,0.0,95,0.33,,---,0.42,VWS V14.01,2013-06-29 21:11:00,
2013-06-29 17:13:00,77.7,76.2,29.75,NNW,335,0.0,0.0,95,0.33,,---,0.42,VWS V14.01,2013-06-29 21:13:00,
2013-06-29 17:18:00,77.2,75.0,29.75,WSW,241,0.0,5.0,93,0.35,,---,0.44,VWS V14.01,2013-06-29 21:18:00,
2013-06-29 17:19:00,76.8,74.6,29.75,WSW,241,0.0,5.0,93,0.37,,---,0.46,VWS V14.01,2013-06-29 21:19:00,
2013-06-29 17:21:00,76.8,74.9,29.75,WSW,241,0.0,5.0,94,0.38,,---,0.47,VWS V14.01,2013-06-29 21:21:00,
2013-06-29 17:23:00,76.5,74.7,29.75,WSW,241,0.0,5.0,94,0.38,,---,0.47,VWS V14.01,2013-06-29 21:23:00,
2013-06-29 17:24:00,76.3,74.4,29.75,WSW,241,0.0,5.0,94,0.38,,---,0.47,VWS V14.01,2013-06-29 21:24:00,
2013-06-29 17:25:00,76.3,74.4,29.75,WSW,241,0.0,5.0,94,0.38,,---,0.47,VWS V14.01,2013-06-29 21:25:00,
2013-06-29 17:28:00,76.1,74.2,29.75,WSW,241,0.0,5.0,94,0.39,,---,0.48,VWS V14.01,2013-06-29 21:28:00,
2013-06-29 17:30:00,76.0,74.2,29.75,WSW,241,0.0,5.0,94,0.39,,---,0.48,VWS V14.01,2013-06-29 21:30:00,
2013-06-29 17:31:00,76.0,74.2,29.75,WSW,241,0.0,5.0,94,0.39,,---,0.48,VWS V14.01,2013-06-29 21:31:00,
2013-06-29 17:32:00,76.0,74.2,29.75,WSW,241,0.0,5.0,94,0.39,,---,0.48,VWS V14.01,2013-06-29 21:32:00,
2013-06-29 17:33:00,76.0,74.2,29.75,WSW,241,0.0,5.0,94,0.39,,---,0.48,VWS V14.01,2013-06-29 21:33:00,
2013-06-29 17:34:00,76.0,74.2,29.74,WSW,241,0.0,5.0,94,0.39,,---,0.48,VWS V14.01,2013-06-29 21:34:00,
2013-06-29 17:36:00,76.1,74.2,29.74,WSW,241,0.0,5.0,94,0.39,,---,0.48,VWS V14.01,2013-06-29 21:36:00,
2013-06-29 17:39:00,76.1,74.6,29.74,WSW,241,0.0,5.0,95,0.39,,---,0.48,VWS V14.01,2013-06-29 21:39:00,
2013-06-29 17:40:00,76.1,74.6,29.74,WSW,241,0.0,5.0,95,0.39,,---,0.48,VWS V14.01,2013-06-29 21:40:00,
2013-06-29 17:41:00,76.1,74.6,29.74,WSW,241,0.0,5.0,95,0.39,,---,0.48,VWS V14.01,2013-06-29 21:41:00,
2013-06-29 17:42:00,76.1,74.6,29.74,WSW,241,0.0,5.0,95,0.39,,---,0.48,VWS V14.01,2013-06-29 21:42:00,
2013-06-29 17:46:00,76.3,74.8,29.74,WSW,241,0.0,5.0,95,0.39,,---,0.48,VWS V14.01,2013-06-29 21:46:00,
2013-06-29 17:47:00,76.3,74.8,29.74,WSW,241,0.0,5.0,95,0.39,,---,0.48,VWS V14.01,2013-06-29 21:47:00,
2013-06-29 17:49:00,76.3,74.8,29.75,WSW,241,0.0,5.0,95,0.39,,---,0.48,VWS V14.01,2013-06-29 21:49:00,
2013-06-29 17:50:00,76.3,74.8,29.75,WSW,241,0.0,5.0,95,0.39,,---,0.48,VWS V14.01,2013-06-29 21:50:00,
2013-06-29 17:52:00,76.3,74.8,29.75,WSW,241,0.0,5.0,95,0.39,,---,0.48,VWS V14.01,2013-06-29 21:52:00,
2013-06-29 17:53:00,76.5,75.0,29.75,WSW,241,0.0,5.0,95,0.39,,---,0.48,VWS V14.01,2013-06-29 21:53:00,
2013-06-29 17:54:00,76.5,75.0,29.75,WSW,241,0.0,5.0,95,0.39,,---,0.48,VWS V14.01,2013-06-29 21:54:00,
2013-06-29 17:55:00,76.5,75.0,29.75,WSW,241,0.0,5.0,95,0.39,,---,0.48,VWS V14.01,2013-06-29 21:55:00,
2013-06-29 17:57:00,76.5,75.0,29.75,WSW,241,0.0,5.0,95,0.39,,---,0.48,VWS V14.01,2013-06-29 21:57:00,
2013-06-29 17:58:00,76.5,75.0,29.75,WSW,241,0.0,5.0,95,0.39,,---,0.48,VWS V14.01,2013-06-29 21:58:00,
2013-06-29 18:00:00,76.7,75.2,29.75,WSW,241,0.0,5.0,95,0.39,,---,0.48,VWS V14.01,2013-06-29 22:00:00,
2013-06-29 18:01:00,76.7,75.2,29.75,WSW,241,0.0,5.0,95,0.39,,---,0.48,VWS V14.01,2013-06-29 22:01:00,
2013-06-29 18:04:00,76.7,75.5,29.75,WSW,241,0.0,5.0,96,0.39,,---,0.48,VWS V14.01,2013-06-29 22:04:00,
2013-06-29 18:05:00,76.7,75.5,29.75,WSW,241,0.0,5.0,96,0.39,,---,0.48,VWS V14.01,2013-06-29 22:05:00,
2013-06-29 18:06:00,76.7,75.2,29.75,WSW,241,0.0,0.0,95,0.06,,---,0.48,VWS V14.01,2013-06-29 22:06:00,
2013-06-29 18:10:00,76.7,75.5,29.75,WSW,241,0.0,0.0,96,0.06,,---,0.48,VWS V14.01,2013-06-29 22:10:00,
2013-06-29 18:11:00,76.7,75.2,29.75,WSW,241,0.0,0.0,95,0.06,,---,0.48,VWS V14.01,2013-06-29 22:11:00,
2013-06-29 18:12:00,76.7,75.5,29.75,WSW,241,0.0,0.0,96,0.06,,---,0.48,VWS V14.01,2013-06-29 22:12:00,
2013-06-29 18:14:00,76.8,75.3,29.75,WSW,241,0.0,0.0,95,0.06,,---,0.48,VWS V14.01,2013-06-29 22:14:00,
2013-06-29 18:15:00,76.7,75.2,29.75,WSW,241,0.0,0.0,95,0.06,,---,0.48,VWS V14.01,2013-06-29 22:15:00,
2013-06-29 18:16:00,76.7,75.2,29.75,WSW,241,0.0,0.0,95,0.06,,---,0.48,VWS V14.01,2013-06-29 22:16:00,
2013-06-29 18:17:00,76.8,75.6,29.75,WSW,241,0.0,0.0,96,0.06,,---,0.48,VWS V14.01,2013-06-29 22:17:00,
2013-06-29 18:20:00,76.8,75.6,29.74,WSW,241,0.0,0.0,96,0.06,,---,0.48,VWS V14.01,2013-06-29 22:20:00,
2013-06-29 18:21:00,76.8,75.6,29.74,WSW,241,0.0,0.0,96,0.06,,---,0.48,VWS V14.01,2013-06-29 22:21:00,
2013-06-29 18:23:00,77.2,76.0,29.74,WSW,241,0.0,0.0,96,0.06,,---,0.48,VWS V14.01,2013-06-29 22:23:00,
2013-06-29 18:27:00,77.4,76.2,29.74,WSW,241,0.0,0.0,96,0.06,,---,0.48,VWS V14.01,2013-06-29 22:27:00,
2013-06-29 18:28:00,77.4,76.2,29.74,WSW,241,0.0,0.0,96,0.06,,---,0.48,VWS V14.01,2013-06-29 22:28:00,
2013-06-29 18:29:00,77.4,76.2,29.74,WSW,241,0.0,0.0,96,0.06,,---,0.48,VWS V14.01,2013-06-29 22:29:00,
2013-06-29 18:30:00,77.4,76.2,29.74,WSW,241,0.0,0.0,96,0.06,,---,0.48,VWS V14.01,2013-06-29 22:30:00,
2013-06-29 18:32:00,77.4,76.2,29.74,WSW,241,0.0,0.0,96,0.06,,---,0.48,VWS V14.01,2013-06-29 22:32:00,
2013-06-29 18:33:00,77.4,76.2,29.74,WSW,241,0.0,0.0,96,0.06,,---,0.48,VWS V14.01,2013-06-29 22:33:00,
2013-06-29 18:34:00,77.4,76.2,29.74,WSW,241,0.0,0.0,96,0.06,,---,0.48,VWS V14.01,2013-06-29 22:34:00,
2013-06-29 18:36:00,77.4,76.2,29.74,WSW,241,0.0,0.0,96,0.06,,---,0.48,VWS V14.01,2013-06-29 22:36:00,
2013-06-29 18:38:00,77.4,76.2,29.74,WSW,241,0.0,0.0,96,0.06,,---,0.48,VWS V14.01,2013-06-29 22:38:00,
2013-06-29 18:39:00,77.4,76.2,29.74,WSW,241,0.0,0.0,96,0.06,,---,0.48,VWS V14.01,2013-06-29 22:39:00,
2013-06-29 18:41:00,77.6,76.4,29.74,WSW,241,0.0,0.0,96,0.06,,---,0.48,VWS V14.01,2013-06-29 22:41:00,
2013-06-29 18:42:00,77.6,76.4,29.74,WSW,241,0.0,0.0,96,0.06,,---,0.48,VWS V14.01,2013-06-29 22:42:00,
2013-06-29 18:43:00,77.6,76.4,29.74,WSW,241,0.0,0.0,96,0.06,,---,0.48,VWS V14.01,2013-06-29 22:43:00,
2013-06-29 18:44:00,77.7,76.5,29.74,WSW,241,0.0,0.0,96,0.06,,---,0.48,VWS V14.01,2013-06-29 22:44:00,
2013-06-29 18:46:00,77.7,76.5,29.74,WSW,241,0.0,0.0,96,0.06,,---,0.48,VWS V14.01,2013-06-29 22:46:00,
2013-06-29 18:48:00,77.7,76.5,29.73,WSW,241,0.0,0.0,96,0.06,,---,0.48,VWS V14.01,2013-06-29 22:48:00,
2013-06-29 18:50:00,77.7,76.5,29.73,WSW,241,0.0,0.0,96,0.06,,---,0.48,VWS V14.01,2013-06-29 22:50:00,
2013-06-29 18:52:00,77.7,76.5,29.73,WSW,241,0.0,0.0,96,0.06,,---,0.48,VWS V14.01,2013-06-29 22:52:00,
2013-06-29 18:53:00,77.7,76.5,29.73,WSW,241,0.0,0.0,96,0.06,,---,0.48,VWS V14.01,2013-06-29 22:53:00,
2013-06-29 18:54:00,77.7,76.5,29.73,WSW,241,0.0,0.0,96,0.06,,---,0.48,VWS V14.01,2013-06-29 22:54:00,
2013-06-29 18:58:00,77.7,76.5,29.73,WSW,241,0.0,0.0,96,0.06,,---,0.48,VWS V14.01,2013-06-29 22:58:00,
2013-06-29 18:59:00,77.7,76.5,29.73,WSW,241,0.0,0.0,96,0.06,,---,0.48,VWS V14.01,2013-06-29 22:59:00,
2013-06-29 19:01:00,77.7,76.5,29.73,WSW,241,0.0,0.0,96,0.06,,---,0.48,VWS V14.01,2013-06-29 23:01:00,
2013-06-29 19:02:00,77.7,76.5,29.73,WSW,241,0.0,0.0,96,0.06,,---,0.48,VWS V14.01,2013-06-29 23:02:00,
2013-06-29 19:03:00,77.7,76.5,29.73,WSW,241,0.0,0.0,96,0.06,,---,0.48,VWS V14.01,2013-06-29 23:03:00,
2013-06-29 19:04:00,77.7,76.5,29.72,WSW,241,0.0,0.0,96,0.06,,---,0.48,VWS V14.01,2013-06-29 23:04:00,
2013-06-29 19:07:00,77.6,76.1,29.72,WSW,241,0.0,0.0,95,0.00,,---,0.48,VWS V14.01,2013-06-29 23:07:00,
2013-06-29 19:09:00,77.6,76.1,29.72,WSW,241,0.0,1.0,95,0.00,,---,0.48,VWS V14.01,2013-06-29 23:09:00,
2013-06-29 19:10:00,77.6,76.1,29.72,WSW,241,0.0,1.0,95,0.00,,---,0.48,VWS V14.01,2013-06-29 23:10:00,
2013-06-29 19:12:00,77.6,76.1,29.72,WSW,241,0.0,1.0,95,0.00,,---,0.48,VWS V14.01,2013-06-29 23:12:00,
2013-06-29 19:13:00,77.6,76.1,29.72,WSW,241,0.0,1.0,95,0.00,,---,0.48,VWS V14.01,2013-06-29 23:13:00,
2013-06-29 19:15:00,77.4,75.9,29.72,WSW,241,0.0,1.0,95,0.00,,---,0.48,VWS V14.01,2013-06-29 23:15:00,
2013-06-29 19:18:00,77.4,75.9,29.73,WSW,241,0.0,1.0,95,0.00,,---,0.48,VWS V14.01,2013-06-29 23:18:00,
2013-06-29 19:19:00,77.4,75.9,29.73,WSW,241,0.0,1.0,95,0.00,,---,0.48,VWS V14.01,2013-06-29 23:19:00,
2013-06-29 19:21:00,77.4,75.9,29.73,WSW,241,0.0,1.0,95,0.00,,---,0.48,VWS V14.01,2013-06-29 23:21:00,
2013-06-29 19:23:00,77.4,75.9,29.73,WSW,241,0.0,1.0,95,0.00,,---,0.48,VWS V14.01,2013-06-29 23:23:00,
2013-06-29 19:26:00,77.6,76.1,29.73,WSW,241,0.0,1.0,95,0.00,,---,0.48,VWS V14.01,2013-06-29 23:26:00,
2013-06-29 19:27:00,77.6,76.1,29.73,WSW,241,0.0,1.0,95,0.00,,---,0.48,VWS V14.01,2013-06-29 23:27:00,
2013-06-29 19:28:00,77.6,76.1,29.73,WSW,241,0.0,1.0,95,0.00,,---,0.48,VWS V14.01,2013-06-29 23:28:00,
2013-06-29 19:29:00,77.6,76.1,29.73,WSW,241,0.0,1.0,95,0.00,,---,0.48,VWS V14.01,2013-06-29 23:29:00,
2013-06-29 19:31:00,77.6,76.1,29.73,WSW,241,0.0,1.0,95,0.00,,---,0.48,VWS V14.01,2013-06-29 23:31:00,
2013-06-29 19:32:00,77.6,76.1,29.73,WSW,241,0.0,1.0,95,0.00,,---,0.48,VWS V14.01,2013-06-29 23:32:00,
2013-06-29 19:33:00,77.6,76.1,29.74,WSW,241,0.0,1.0,95,0.00,,---,0.48,VWS V14.01,2013-06-29 23:33:00,
2013-06-29 19:35:00,77.6,76.1,29.74,WSW,241,0.0,1.0,95,0.00,,---,0.48,VWS V14.01,2013-06-29 23:35:00,
2013-06-29 19:36:00,77.6,76.1,29.74,WSW,241,0.0,1.0,95,0.00,,---,0.48,VWS V14.01,2013-06-29 23:36:00,
2013-06-29 19:38:00,77.7,76.2,29.74,WSW,241,0.0,1.0,95,0.00,,---,0.48,VWS V14.01,2013-06-29 23:38:00,
2013-06-29 19:40:00,77.7,76.2,29.74,WSW,241,0.0,1.0,95,0.00,,---,0.48,VWS V14.01,2013-06-29 23:40:00,
2013-06-29 19:41:00,77.7,76.2,29.74,WSW,241,0.0,1.0,95,0.00,,---,0.48,VWS V14.01,2013-06-29 23:41:00,
2013-06-29 19:44:00,77.7,76.2,29.74,WSW,241,0.0,1.0,95,0.00,,---,0.48,VWS V14.01,2013-06-29 23:44:00,
2013-06-29 19:46:00,77.7,76.2,29.74,WSW,241,0.0,1.0,95,0.00,,---,0.48,VWS V14.01,2013-06-29 23:46:00,
2013-06-29 19:47:00,77.7,76.2,29.74,WSW,241,0.0,1.0,95,0.00,,---,0.48,VWS V14.01,2013-06-29 23:47:00,
2013-06-29 19:50:00,77.7,76.2,29.74,WSW,241,0.0,1.0,95,0.00,,---,0.48,VWS V14.01,2013-06-29 23:50:00,
2013-06-29 19:51:00,77.9,76.4,29.74,WSW,241,0.0,1.0,95,0.00,,---,0.48,VWS V14.01,2013-06-29 23:51:00,
2013-06-29 19:52:00,77.9,76.4,29.74,WSW,241,0.0,1.0,95,0.00,,---,0.48,VWS V14.01,2013-06-29 23:52:00,
2013-06-29 19:54:00,77.9,76.4,29.74,WSW,241,0.0,1.0,95,0.00,,---,0.48,VWS V14.01,2013-06-29 23:54:00,
2013-06-29 19:56:00,77.9,76.4,29.74,WSW,241,0.0,1.0,95,0.00,,---,0.48,VWS V14.01,2013-06-29 23:56:00,
2013-06-29 19:57:00,77.9,76.4,29.74,WSW,241,0.0,1.0,95,0.00,,---,0.48,VWS V14.01,2013-06-29 23:57:00,
2013-06-29 19:59:00,77.9,76.4,29.74,WSW,241,0.0,1.0,95,0.00,,---,0.48,VWS V14.01,2013-06-29 23:59:00,
2013-06-29 20:00:00,77.9,76.4,29.74,WSW,241,0.0,1.0,95,0.00,,---,0.48,VWS V14.01,2013-06-30 00:00:00,
2013-06-29 20:01:00,77.9,76.4,29.74,WSW,241,0.0,1.0,95,0.00,,---,0.48,VWS V14.01,2013-06-30 00:01:00,
2013-06-29 20:02:00,77.9,76.4,29.74,WSW,241,0.0,1.0,95,0.00,,---,0.48,VWS V14.01,2013-06-30 00:02:00,
2013-06-29 20:03:00,77.9,76.4,29.74,WSW,241,0.0,1.0,95,0.00,,---,0.48,VWS V14.01,2013-06-30 00:03:00,
2013-06-29 20:06:00,77.9,76.4,29.74,WSW,241,0.0,0.0,95,0.00,,---,0.48,VWS V14.01,2013-06-30 00:06:00,
2013-06-29 20:07:00,77.9,76.4,29.74,WSW,241,0.0,0.0,95,0.00,,---,0.48,VWS V14.01,2013-06-30 00:07:00,
2013-06-29 20:08:00,77.9,76.4,29.74,WSW,241,0.0,0.0,95,0.00,,---,0.48,VWS V14.01,2013-06-30 00:08:00,
2013-06-29 20:09:00,77.9,76.4,29.74,WSW,241,0.0,0.0,95,0.00,,---,0.48,VWS V14.01,2013-06-30 00:09:00,
2013-06-29 20:12:00,77.9,76.4,29.74,WSW,241,0.0,0.0,95,0.00,,---,0.48,VWS V14.01,2013-06-30 00:12:00,
2013-06-29 20:13:00,77.9,76.4,29.74,WSW,241,0.0,0.0,95,0.00,,---,0.48,VWS V14.01,2013-06-30 00:13:00,
2013-06-29 20:14:00,77.9,76.4,29.74,WSW,241,0.0,0.0,95,0.00,,---,0.48,VWS V14.01,2013-06-30 00:14:00,
2013-06-29 20:18:00,77.9,76.7,29.75,WSW,241,0.0,0.0,96,0.00,,---,0.48,VWS V14.01,2013-06-30 00:18:00,
2013-06-29 20:19:00,78.1,76.9,29.75,WSW,241,0.0,0.0,96,0.00,,---,0.48,VWS V14.01,2013-06-30 00:19:00,
2013-06-29 20:20:00,78.1,76.9,29.75,WSW,241,0.0,0.0,96,0.00,,---,0.48,VWS V14.01,2013-06-30 00:20:00,
2013-06-29 20:24:00,78.1,76.9,29.75,WSW,241,0.0,0.0,96,0.00,,---,0.48,VWS V14.01,2013-06-30 00:24:00,
2013-06-29 20:26:00,78.1,76.9,29.75,WSW,241,0.0,0.0,96,0.00,,---,0.48,VWS V14.01,2013-06-30 00:26:00,
2013-06-29 20:28:00,77.9,76.7,29.75,WSW,241,0.0,0.0,96,0.00,,---,0.48,VWS V14.01,2013-06-30 00:28:00,
2013-06-29 20:30:00,77.9,76.7,29.75,WSW,241,0.0,0.0,96,0.00,,---,0.48,VWS V14.01,2013-06-30 00:30:00,
2013-06-29 20:32:00,77.9,76.7,29.75,WSW,241,0.0,0.0,96,0.00,,---,0.48,VWS V14.01,2013-06-30 00:32:00,
2013-06-29 20:33:00,77.9,76.7,29.75,WSW,241,0.0,0.0,96,0.00,,---,0.48,VWS V14.01,2013-06-30 00:33:00,
2013-06-29 20:34:00,77.9,76.7,29.75,WSW,241,0.0,0.0,96,0.00,,---,0.48,VWS V14.01,2013-06-30 00:34:00,
2013-06-29 20:36:00,77.9,76.7,29.75,WSW,241,0.0,0.0,96,0.00,,---,0.48,VWS V14.01,2013-06-30 00:36:00,
2013-06-29 20:39:00,77.7,76.5,29.75,WSW,241,0.0,0.0,96,0.00,,---,0.48,VWS V14.01,2013-06-30 00:39:00,
2013-06-29 20:40:00,77.7,76.5,29.75,WSW,241,0.0,0.0,96,0.00,,---,0.48,VWS V14.01,2013-06-30 00:40:00,
2013-06-29 20:43:00,77.7,76.5,29.75,WSW,241,0.0,0.0,96,0.00,,---,0.48,VWS V14.01,2013-06-30 00:43:00,
2013-06-29 20:44:00,77.7,76.5,29.75,WSW,241,0.0,0.0,96,0.00,,---,0.48,VWS V14.01,2013-06-30 00:44:00,
2013-06-29 20:45:00,77.7,76.5,29.75,WSW,241,0.0,0.0,96,0.00,,---,0.48,VWS V14.01,2013-06-30 00:45:00,
2013-06-29 20:46:00,77.7,76.5,29.75,WSW,241,0.0,0.0,96,0.00,,---,0.48,VWS V14.01,2013-06-30 00:46:00,
2013-06-29 20:50:00,77.7,76.5,29.75,WSW,241,0.0,0.0,96,0.00,,---,0.48,VWS V14.01,2013-06-30 00:50:00,
2013-06-29 20:51:00,77.7,76.5,29.75,WSW,241,0.0,0.0,96,0.00,,---,0.48,VWS V14.01,2013-06-30 00:51:00,
2013-06-29 20:52:00,77.7,76.5,29.75,WSW,241,0.0,0.0,96,0.00,,---,0.48,VWS V14.01,2013-06-30 00:52:00,
2013-06-29 20:54:00,77.7,76.5,29.75,WSW,241,0.0,0.0,96,0.00,,---,0.48,VWS V14.01,2013-06-30 00:54:00,
2013-06-29 20:56:00,77.7,76.5,29.75,WSW,241,0.0,0.0,96,0.00,,---,0.48,VWS V14.01,2013-06-30 00:56:00,
2013-06-29 21:00:00,77.7,76.5,29.75,WSW,241,0.0,0.0,96,0.00,,---,0.48,VWS V14.01,2013-06-30 01:00:00,
2013-06-29 21:01:00,77.7,76.5,29.75,WSW,241,0.0,0.0,96,0.00,,---,0.48,VWS V14.01,2013-06-30 01:01:00,
2013-06-29 21:03:00,77.7,76.5,29.75,WSW,241,0.0,0.0,96,0.00,,---,0.48,VWS V14.01,2013-06-30 01:03:00,
2013-06-29 21:05:00,77.7,76.5,29.75,WSW,241,0.0,0.0,96,0.00,,---,0.48,VWS V14.01,2013-06-30 01:05:00,
2013-06-29 21:06:00,77.7,76.5,29.75,WSW,241,0.0,0.0,96,0.00,,---,0.48,VWS V14.01,2013-06-30 01:06:00,
2013-06-29 21:07:00,77.7,76.5,29.75,WSW,241,0.0,0.0,96,0.00,,---,0.48,VWS V14.01,2013-06-30 01:07:00,
2013-06-29 21:08:00,77.7,76.5,29.75,WSW,241,0.0,0.0,96,0.00,,---,0.48,VWS V14.01,2013-06-30 01:08:00,
2013-06-29 21:11:00,77.7,76.5,29.75,WSW,241,0.0,0.0,96,0.00,,---,0.48,VWS V14.01,2013-06-30 01:11:00,
2013-06-29 21:12:00,77.7,76.5,29.75,WSW,241,0.0,0.0,96,0.00,,---,0.48,VWS V14.01,2013-06-30 01:12:00,
2013-06-29 21:13:00,77.7,76.5,29.75,WSW,241,0.0,0.0,96,0.00,,---,0.48,VWS V14.01,2013-06-30 01:13:00,
2013-06-29 21:16:00,77.7,76.5,29.75,WSW,241,0.0,1.0,96,0.00,,---,0.48,VWS V14.01,2013-06-30 01:16:00,
2013-06-29 21:18:00,77.7,76.5,29.75,WSW,241,0.0,1.0,96,0.00,,---,0.48,VWS V14.01,2013-06-30 01:18:00,
2013-06-29 21:21:00,77.7,76.8,29.75,WSW,241,0.0,1.0,97,0.00,,---,0.48,VWS V14.01,2013-06-30 01:21:00,
2013-06-29 21:23:00,77.7,76.8,29.75,WSW,241,0.0,1.0,97,0.00,,---,0.48,VWS V14.01,2013-06-30 01:23:00,
2013-06-29 21:25:00,77.7,76.8,29.75,WSW,241,0.0,1.0,97,0.00,,---,0.48,VWS V14.01,2013-06-30 01:25:00,
2013-06-29 21:27:00,77.7,76.8,29.75,WSW,241,0.0,1.0,97,0.00,,---,0.48,VWS V14.01,2013-06-30 01:27:00,
2013-06-29 21:31:00,77.7,76.8,29.75,WSW,241,0.0,1.0,97,0.00,,---,0.48,VWS V14.01,2013-06-30 01:31:00,
2013-06-29 21:32:00,77.7,76.8,29.75,WSW,241,0.0,1.0,97,0.00,,---,0.48,VWS V14.01,2013-06-30 01:32:00,
2013-06-29 21:36:00,77.6,76.7,29.76,WSW,241,0.0,1.0,97,0.00,,---,0.48,VWS V14.01,2013-06-30 01:36:00,
2013-06-29 21:37:00,77.6,76.7,29.76,WSW,241,0.0,1.0,97,0.00,,---,0.48,VWS V14.01,2013-06-30 01:37:00,
2013-06-29 21:38:00,77.6,76.7,29.76,WSW,241,0.0,1.0,97,0.00,,---,0.48,VWS V14.01,2013-06-30 01:38:00,
2013-06-29 21:41:00,77.6,76.7,29.76,SSW,205,0.0,1.0,97,0.00,,---,0.48,VWS V14.01,2013-06-30 01:41:00,
2013-06-29 21:42:00,77.6,76.7,29.76,SSW,205,0.0,1.0,97,0.00,,---,0.48,VWS V14.01,2013-06-30 01:42:00,
2013-06-29 21:44:00,77.6,76.7,29.76,SSW,205,0.0,1.0,97,0.00,,---,0.48,VWS V14.01,2013-06-30 01:44:00,
2013-06-29 21:45:00,77.6,76.7,29.76,SSW,205,0.0,1.0,97,0.00,,---,0.48,VWS V14.01,2013-06-30 01:45:00,
2013-06-29 21:46:00,77.6,76.7,29.76,SSW,205,0.0,1.0,97,0.00,,---,0.48,VWS V14.01,2013-06-30 01:46:00,
2013-06-29 21:47:00,77.6,76.7,29.76,SSW,205,0.0,1.0,97,0.00,,---,0.48,VWS V14.01,2013-06-30 01:47:00,
2013-06-29 21:51:00,77.4,76.5,29.77,SSW,205,4.0,4.0,97,0.00,,---,0.48,VWS V14.01,2013-06-30 01:51:00,
2013-06-29 21:52:00,77.4,76.5,29.77,SSW,205,0.0,4.0,97,0.00,,---,0.48,VWS V14.01,2013-06-30 01:52:00,
2013-06-29 21:55:00,77.4,76.5,29.77,SSW,205,0.0,4.0,97,0.00,,---,0.48,VWS V14.01,2013-06-30 01:55:00,
2013-06-29 21:56:00,77.4,76.5,29.77,SSW,205,0.0,4.0,97,0.00,,---,0.48,VWS V14.01,2013-06-30 01:56:00,
2013-06-29 21:57:00,77.4,76.5,29.77,SSW,205,0.0,4.0,97,0.00,,---,0.48,VWS V14.01,2013-06-30 01:57:00,
2013-06-29 21:58:00,77.4,76.5,29.77,SSW,205,0.0,4.0,97,0.00,,---,0.48,VWS V14.01,2013-06-30 01:58:00,
2013-06-29 22:03:00,77.4,76.5,29.77,SSW,205,0.0,4.0,97,0.00,,---,0.48,VWS V14.01,2013-06-30 02:03:00,
2013-06-29 22:04:00,77.4,76.5,29.76,SSW,205,1.0,4.0,97,0.00,,---,0.48,VWS V14.01,2013-06-30 02:04:00,
2013-06-29 22:05:00,77.4,76.5,29.76,SSW,205,0.0,0.0,97,0.00,,---,0.48,VWS V14.01,2013-06-30 02:05:00,
2013-06-29 22:06:00,77.2,76.3,29.76,SSW,205,0.0,0.0,97,0.00,,---,0.48,VWS V14.01,2013-06-30 02:06:00,
2013-06-29 22:08:00,77.2,76.3,29.76,SSW,205,0.0,0.0,97,0.00,,---,0.48,VWS V14.01,2013-06-30 02:08:00,
2013-06-29 22:09:00,77.2,76.3,29.76,SSW,205,2.0,3.0,97,0.00,,---,0.48,VWS V14.01,2013-06-30 02:09:00,
2013-06-29 22:10:00,77.2,76.3,29.76,SSW,205,0.0,3.0,97,0.00,,---,0.48,VWS V14.01,2013-06-30 02:10:00,
2013-06-29 22:12:00,77.2,76.3,29.76,SSW,205,0.0,3.0,97,0.00,,---,0.48,VWS V14.01,2013-06-30 02:12:00,
2013-06-29 22:13:00,77.2,76.3,29.76,SSW,205,0.0,3.0,97,0.00,,---,0.48,VWS V14.01,2013-06-30 02:13:00,
2013-06-29 22:16:00,77.2,76.3,29.76,SSW,205,0.0,3.0,97,0.00,,---,0.48,VWS V14.01,2013-06-30 02:16:00,
2013-06-29 22:18:00,77.2,76.3,29.76,SSW,205,0.0,3.0,97,0.00,,---,0.48,VWS V14.01,2013-06-30 02:18:00,
2013-06-29 22:21:00,77.0,76.1,29.76,SSW,205,0.0,3.0,97,0.00,,---,0.48,VWS V14.01,2013-06-30 02:21:00,
2013-06-29 22:24:00,77.0,76.1,29.76,SSW,205,0.0,3.0,97,0.00,,---,0.48,VWS V14.01,2013-06-30 02:24:00,
2013-06-29 22:25:00,77.0,76.1,29.76,SSW,205,0.0,3.0,97,0.00,,---,0.48,VWS V14.01,2013-06-30 02:25:00,
2013-06-29 22:27:00,77.0,76.1,29.76,SSW,205,0.0,3.0,97,0.00,,---,0.48,VWS V14.01,2013-06-30 02:27:00,
2013-06-29 22:31:00,77.0,76.1,29.76,SSW,205,0.0,3.0,97,0.00,,---,0.48,VWS V14.01,2013-06-30 02:31:00,
2013-06-29 22:33:00,76.8,75.9,29.76,SSW,205,0.0,3.0,97,0.00,,---,0.48,VWS V14.01,2013-06-30 02:33:00,
2013-06-29 22:34:00,76.8,75.9,29.76,SSW,205,0.0,3.0,97,0.00,,---,0.48,VWS V14.01,2013-06-30 02:34:00,
2013-06-29 22:35:00,76.8,75.9,29.76,SSW,205,0.0,3.0,97,0.00,,---,0.48,VWS V14.01,2013-06-30 02:35:00,
2013-06-29 22:37:00,76.8,75.9,29.76,SSW,205,0.0,3.0,97,0.00,,---,0.48,VWS V14.01,2013-06-30 02:37:00,
2013-06-29 22:38:00,76.8,75.9,29.76,SSW,205,0.0,3.0,97,0.00,,---,0.48,VWS V14.01,2013-06-30 02:38:00,
2013-06-29 22:41:00,76.8,75.9,29.76,SSW,205,0.0,3.0,97,0.00,,---,0.48,VWS V14.01,2013-06-30 02:41:00,
2013-06-29 22:42:00,76.8,75.9,29.76,SSW,205,0.0,3.0,97,0.00,,---,0.48,VWS V14.01,2013-06-30 02:42:00,
2013-06-29 22:44:00,76.8,75.9,29.76,SSW,205,0.0,3.0,97,0.00,,---,0.48,VWS V14.01,2013-06-30 02:44:00,
2013-06-29 22:46:00,76.7,75.8,29.76,SSW,205,0.0,3.0,97,0.00,,---,0.48,VWS V14.01,2013-06-30 02:46:00,
2013-06-29 22:48:00,76.7,75.8,29.76,SSW,205,0.0,3.0,97,0.00,,---,0.48,VWS V14.01,2013-06-30 02:48:00,
2013-06-29 22:50:00,76.7,75.8,29.76,SSW,205,0.0,3.0,97,0.00,,---,0.48,VWS V14.01,2013-06-30 02:50:00,
2013-06-29 22:51:00,76.7,75.8,29.76,SSW,205,0.0,3.0,97,0.00,,---,0.48,VWS V14.01,2013-06-30 02:51:00,
2013-06-29 22:55:00,76.7,75.8,29.76,SSW,205,0.0,3.0,97,0.00,,---,0.48,VWS V14.01,2013-06-30 02:55:00,
2013-06-29 22:56:00,76.7,75.8,29.76,SSW,205,0.0,3.0,97,0.00,,---,0.48,VWS V14.01,2013-06-30 02:56:00,
2013-06-29 22:57:00,76.5,75.6,29.76,SSW,205,0.0,3.0,97,0.00,,---,0.48,VWS V14.01,2013-06-30 02:57:00,
2013-06-29 23:01:00,76.5,75.6,29.76,SSW,205,0.0,3.0,97,0.00,,---,0.48,VWS V14.01,2013-06-30 03:01:00,
2013-06-29 23:02:00,76.5,75.6,29.76,SSW,205,0.0,3.0,97,0.00,,---,0.48,VWS V14.01,2013-06-30 03:02:00,
2013-06-29 23:03:00,76.5,75.6,29.76,SSW,205,0.0,3.0,97,0.00,,---,0.48,VWS V14.01,2013-06-30 03:03:00,
2013-06-29 23:04:00,76.5,75.6,29.76,SSW,205,0.0,0.0,97,0.00,,---,0.48,VWS V14.01,2013-06-30 03:04:00,
2013-06-29 23:06:00,76.5,75.6,29.76,SSW,205,0.0,0.0,97,0.00,,---,0.48,VWS V14.01,2013-06-30 03:06:00,
2013-06-29 23:08:00,76.3,75.4,29.76,SSW,205,0.0,0.0,97,0.00,,---,0.48,VWS V14.01,2013-06-30 03:08:00,
2013-06-29 23:09:00,76.3,75.4,29.76,SSW,205,0.0,0.0,97,0.00,,---,0.48,VWS V14.01,2013-06-30 03:09:00,
2013-06-29 23:12:00,76.3,75.4,29.76,SSW,205,0.0,0.0,97,0.00,,---,0.48,VWS V14.01,2013-06-30 03:12:00,
2013-06-29 23:14:00,76.3,75.4,29.76,SSW,205,0.0,0.0,97,0.00,,---,0.48,VWS V14.01,2013-06-30 03:14:00,
2013-06-29 23:15:00,76.3,75.4,29.76,SSW,205,0.0,0.0,97,0.00,,---,0.48,VWS V14.01,2013-06-30 03:15:00,
2013-06-29 23:18:00,76.3,75.4,29.76,SSW,205,0.0,0.0,97,0.00,,---,0.48,VWS V14.01,2013-06-30 03:18:00,
2013-06-29 23:20:00,76.1,75.2,29.77,SSW,205,0.0,0.0,97,0.00,,---,0.48,VWS V14.01,2013-06-30 03:20:00,
2013-06-29 23:21:00,76.1,75.2,29.77,SSW,205,0.0,0.0,97,0.00,,---,0.48,VWS V14.01,2013-06-30 03:21:00,
2013-06-29 23:23:00,76.1,75.2,29.77,SSW,205,0.0,0.0,97,0.00,,---,0.48,VWS V14.01,2013-06-30 03:23:00,
2013-06-29 23:25:00,76.1,75.2,29.77,SSW,205,0.0,0.0,97,0.00,,---,0.48,VWS V14.01,2013-06-30 03:25:00,
2013-06-29 23:26:00,76.1,75.2,29.77,SSW,205,0.0,0.0,97,0.00,,---,0.48,VWS V14.01,2013-06-30 03:26:00,
2013-06-29 23:28:00,76.1,75.2,29.77,SSW,205,0.0,0.0,97,0.00,,---,0.48,VWS V14.01,2013-06-30 03:28:00,
2013-06-29 23:32:00,76.0,75.1,29.77,SSW,205,0.0,0.0,97,0.00,,---,0.48,VWS V14.01,2013-06-30 03:32:00,
2013-06-29 23:34:00,76.0,75.1,29.77,SSW,205,0.0,0.0,97,0.00,,---,0.48,VWS V14.01,2013-06-30 03:34:00,
2013-06-29 23:36:00,76.0,75.1,29.77,SSW,205,0.0,0.0,97,0.00,,---,0.48,VWS V14.01,2013-06-30 03:36:00,
2013-06-29 23:38:00,76.0,75.1,29.77,SSW,205,0.0,0.0,97,0.00,,---,0.48,VWS V14.01,2013-06-30 03:38:00,
2013-06-29 23:40:00,76.0,75.1,29.77,SSW,205,0.0,0.0,97,0.00,,---,0.48,VWS V14.01,2013-06-30 03:40:00,
2013-06-29 23:42:00,76.0,75.1,29.77,SSW,205,0.0,0.0,97,0.00,,---,0.48,VWS V14.01,2013-06-30 03:42:00,
2013-06-29 23:46:00,75.8,74.9,29.77,SSW,205,0.0,0.0,97,0.00,,---,0.48,VWS V14.01,2013-06-30 03:46:00,
2013-06-29 23:47:00,75.8,74.9,29.77,SSW,205,0.0,0.0,97,0.00,,---,0.48,VWS V14.01,2013-06-30 03:47:00,
2013-06-29 23:48:00,75.8,74.9,29.77,SSW,205,0.0,0.0,97,0.00,,---,0.48,VWS V14.01,2013-06-30 03:48:00,
2013-06-29 23:51:00,75.8,74.9,29.77,SSW,205,0.0,0.0,97,0.00,,---,0.48,VWS V14.01,2013-06-30 03:51:00,
2013-06-29 23:52:00,75.8,74.9,29.77,SSW,205,0.0,0.0,97,0.00,,---,0.48,VWS V14.01,2013-06-30 03:52:00,
2013-06-29 23:53:00,75.8,74.9,29.77,SSW,205,0.0,0.0,97,0.00,,---,0.48,VWS V14.01,2013-06-30 03:53:00,
2013-06-29 23:54:00,75.8,74.9,29.77,SSW,205,0.0,0.0,97,0.00,,---,0.48,VWS V14.01,2013-06-30 03:54:00,
2013-06-29 23:57:00,75.8,74.9,29.77,SSW,205,0.0,0.0,97,0.00,,---,0.48,VWS V14.01,2013-06-30 03:57:00,
2013-06-29 23:58:00,75.8,74.9,29.77,SSW,205,0.0,0.0,97,0.00,,---,0.48,VWS V14.01,2013-06-30 03:58:00,
2013-06-29 23:59:00,75.8,74.9,29.77,SSW,205,0.0,0.0,97,0.00,,---,0.48,VWS V14.01,2013-06-30 03:59:00,